Wetterdaten: Freitag, 11.10.2013
Datum Zeit Temp. Aussen +5cm Feuchte Auss Luftdruck Regen Sonnenschein Regendauer UV Solar Windben
11.10.2013 00:00 7,8 C 6,7 C 94 % 1010,2 hPa 0,0 l/m 0 min 0 min 0,0 UV-I 0 W/m 0,0 km/h (0 Bft)
11.10.2013 00:02 7,8 C 6,7 C 94 % 1010,2 hPa 0,0 l/m 0 min 0 min 0,0 UV-I 0 W/m 0,0 km/h (0 Bft)
11.10.2013 00:06 7,7 C 6,7 C 94 % 1010,2 hPa 0,0 l/m 0 min 0 min 0,0 UV-I 0 W/m 0,0 km/h (0 Bft)
11.10.2013 00:08 7,7 C 6,7 C 94 % 1010,3 hPa 0,0 l/m 0 min 0 min 0,0 UV-I 0 W/m 0,0 km/h (0 Bft)
11.10.2013 00:10 7,7 C 6,7 C 94 % 1010,4 hPa 0,0 l/m 0 min 0 min 0,0 UV-I 0 W/m 0,0 km/h (0 Bft)
11.10.2013 00:12 7,7 C 6,7 C 94 % 1010,5 hPa 0,0 l/m 0 min 0 min 0,0 UV-I 0 W/m 0,0 km/h (0 Bft)
11.10.2013 00:14 7,7 C 6,7 C 94 % 1010,5 hPa 0,0 l/m 0 min 0 min 0,0 UV-I 0 W/m 0,0 km/h (0 Bft)
11.10.2013 00:16 7,7 C 6,7 C 94 % 1010,5 hPa 0,0 l/m 0 min 0 min 0,0 UV-I 0 W/m 0,0 km/h (0 Bft)
11.10.2013 00:18 7,7 C 6,7 C 94 % 1010,3 hPa 0,0 l/m 0 min 0 min 0,0 UV-I 0 W/m 0,0 km/h (0 Bft)
11.10.2013 00:20 7,6 C 6,1 C 95 % 1010,3 hPa 0,0 l/m 0 min 0 min 0,0 UV-I 0 W/m 0,0 km/h (0 Bft)
11.10.2013 00:22 7,6 C 6,1 C 95 % 1010,4 hPa 0,0 l/m 0 min 0 min 0,0 UV-I 0 W/m 0,0 km/h (0 Bft)
11.10.2013 00:24 7,6 C 6,1 C 95 % 1010,4 hPa 0,0 l/m 0 min 0 min 0,0 UV-I 0 W/m 0,0 km/h (0 Bft)
11.10.2013 00:26 7,5 C 6,1 C 95 % 1010,5 hPa 0,0 l/m 0 min 0 min 0,0 UV-I 0 W/m 0,0 km/h (0 Bft)
11.10.2013 00:28 7,5 C 6,1 C 95 % 1010,5 hPa 0,0 l/m 0 min 0 min 0,0 UV-I 0 W/m 0,0 km/h (0 Bft)
11.10.2013 00:30 7,4 C 6,1 C 95 % 1010,6 hPa 0,0 l/m 0 min 0 min 0,0 UV-I 0 W/m 0,0 km/h (0 Bft)
11.10.2013 00:32 7,4 C 6,1 C 95 % 1010,6 hPa 0,0 l/m 0 min 0 min 0,0 UV-I 0 W/m 0,0 km/h (0 Bft)
11.10.2013 00:34 7,4 C 6,1 C 95 % 1010,5 hPa 0,0 l/m 0 min 0 min 0,0 UV-I 0 W/m 0,0 km/h (0 Bft)
11.10.2013 00:36 7,3 C 6,1 C 95 % 1010,5 hPa 0,0 l/m 0 min 0 min 0,0 UV-I 0 W/m 0,0 km/h (0 Bft)
11.10.2013 00:38 7,3 C 5,6 C 95 % 1010,6 hPa 0,0 l/m 0 min 0 min 0,0 UV-I 0 W/m 0,0 km/h (0 Bft)
11.10.2013 00:40 7,3 C 6,1 C 95 % 1010,6 hPa 0,0 l/m 0 min 0 min 0,0 UV-I 0 W/m 0,0 km/h (0 Bft)
11.10.2013 00:42 7,3 C 6,1 C 95 % 1010,6 hPa 0,0 l/m 0 min 0 min 0,0 UV-I 0 W/m 0,0 km/h (0 Bft)
11.10.2013 00:44 7,3 C 6,1 C 95 % 1010,5 hPa 0,0 l/m 0 min 0 min 0,0 UV-I 0 W/m 0,0 km/h (0 Bft)
11.10.2013 00:46 7,3 C 5,6 C 95 % 1010,6 hPa 0,0 l/m 0 min 0 min 0,0 UV-I 0 W/m 0,0 km/h (0 Bft)
11.10.2013 00:48 7,3 C 5,6 C 96 % 1010,6 hPa 0,0 l/m 0 min 0 min 0,0 UV-I 0 W/m 0,0 km/h (0 Bft)
11.10.2013 00:50 7,3 C 5,6 C 96 % 1010,6 hPa 0,0 l/m 0 min 0 min 0,0 UV-I 0 W/m 0,0 km/h (0 Bft)
11.10.2013 00:52 7,2 C 5,6 C 95 % 1010,7 hPa 0,0 l/m 0 min 0 min 0,0 UV-I 0 W/m 0,0 km/h (0 Bft)
11.10.2013 00:54 7,2 C 5,6 C 96 % 1010,7 hPa 0,0 l/m 0 min 0 min 0,0 UV-I 0 W/m 0,0 km/h (0 Bft)
11.10.2013 00:56 7,2 C 5,6 C 96 % 1010,7 hPa 0,0 l/m 0 min 0 min 0,0 UV-I 0 W/m 0,0 km/h (0 Bft)
11.10.2013 00:58 7,1 C 5,6 C 96 % 1010,8 hPa 0,0 l/m 0 min 0 min 0,0 UV-I 0 W/m 0,0 km/h (0 Bft)
11.10.2013 01:00 7,1 C 5,6 C 96 % 1010,8 hPa 0,0 l/m 0 min 0 min 0,0 UV-I 0 W/m 0,0 km/h (0 Bft)
11.10.2013 01:02 7,1 C 5,6 C 96 % 1010,8 hPa 0,0 l/m 0 min 0 min 0,0 UV-I 0 W/m 0,0 km/h (0 Bft)
11.10.2013 01:06 7,2 C 6,1 C 96 % 1010,9 hPa 0,0 l/m 0 min 0 min 0,0 UV-I 0 W/m 0,0 km/h (0 Bft)
11.10.2013 01:08 7,2 C 6,1 C 96 % 1010,9 hPa 0,0 l/m 0 min 0 min 0,0 UV-I 0 W/m 0,0 km/h (0 Bft)
11.10.2013 01:10 7,3 C 6,1 C 96 % 1010,9 hPa 0,0 l/m 0 min 0 min 0,0 UV-I 0 W/m 2,6 km/h (1 Bft)
11.10.2013 01:12 7,3 C 6,1 C 96 % 1010,9 hPa 0,0 l/m 0 min 0 min 0,0 UV-I 0 W/m 5,1 km/h (1 Bft)
11.10.2013 01:14 7,3 C 6,1 C 96 % 1011,1 hPa 0,0 l/m 0 min 0 min 0,0 UV-I 0 W/m 2,6 km/h (1 Bft)
11.10.2013 01:16 7,3 C 6,1 C 96 % 1011,1 hPa 0,0 l/m 0 min 0 min 0,0 UV-I 0 W/m 2,6 km/h (1 Bft)
11.10.2013 01:18 7,3 C 6,1 C 96 % 1011,1 hPa 0,0 l/m 0 min 0 min 0,0 UV-I 0 W/m 0,0 km/h (0 Bft)
11.10.2013 01:20 7,2 C 6,1 C 96 % 1011,1 hPa 0,0 l/m 0 min 0 min 0,0 UV-I 0 W/m 0,0 km/h (0 Bft)
11.10.2013 01:22 7,2 C 6,1 C 96 % 1011,2 hPa 0,0 l/m 0 min 0 min 0,0 UV-I 0 W/m 7,7 km/h (2 Bft)
11.10.2013 01:24 7,2 C 6,1 C 96 % 1011,2 hPa 0,0 l/m 0 min 0 min 0,0 UV-I 0 W/m 2,6 km/h (1 Bft)
11.10.2013 01:26 7,2 C 6,1 C 96 % 1011,2 hPa 0,0 l/m 0 min 0 min 0,0 UV-I 0 W/m 0,0 km/h (0 Bft)
11.10.2013 01:28 7,2 C 6,1 C 97 % 1011,2 hPa 0,0 l/m 0 min 0 min 0,0 UV-I 0 W/m 0,0 km/h (0 Bft)
11.10.2013 01:30 7,2 C 6,1 C 97 % 1011,2 hPa 0,0 l/m 0 min 0 min 0,0 UV-I 0 W/m 2,6 km/h (1 Bft)
11.10.2013 01:32 7,2 C 6,1 C 97 % 1011,3 hPa 0,0 l/m 0 min 0 min 0,0 UV-I 0 W/m 0,0 km/h (0 Bft)
11.10.2013 01:34 7,1 C 6,1 C 97 % 1011,4 hPa 0,0 l/m 0 min 0 min 0,0 UV-I 0 W/m 0,0 km/h (0 Bft)
11.10.2013 01:36 7,1 C 6,1 C 96 % 1011,4 hPa 0,0 l/m 0 min 0 min 0,0 UV-I 0 W/m 0,0 km/h (0 Bft)
11.10.2013 01:38 7,1 C 6,1 C 96 % 1011,4 hPa 0,0 l/m 0 min 0 min 0,0 UV-I 0 W/m 0,0 km/h (0 Bft)
11.10.2013 01:40 7,1 C 6,1 C 96 % 1011,4 hPa 0,0 l/m 0 min 0 min 0,0 UV-I 0 W/m 0,0 km/h (0 Bft)
11.10.2013 01:42 7,1 C 6,1 C 96 % 1011,4 hPa 0,0 l/m 0 min 0 min 0,0 UV-I 0 W/m 2,6 km/h (1 Bft)
11.10.2013 01:44 7,1 C 6,1 C 97 % 1011,3 hPa 0,0 l/m 0 min 0 min 0,0 UV-I 0 W/m 0,0 km/h (0 Bft)
11.10.2013 01:46 7,1 C 6,1 C 97 % 1011,4 hPa 0,0 l/m 0 min 0 min 0,0 UV-I 0 W/m 0,0 km/h (0 Bft)
11.10.2013 01:48 7,1 C 6,1 C 97 % 1011,5 hPa 0,0 l/m 0 min 0 min 0,0 UV-I 0 W/m 0,0 km/h (0 Bft)
11.10.2013 01:50 7,0 C 6,1 C 97 % 1011,5 hPa 0,0 l/m 0 min 0 min 0,0 UV-I 0 W/m 0,0 km/h (0 Bft)
11.10.2013 01:52 7,0 C 5,6 C 97 % 1011,5 hPa 0,0 l/m 0 min 0 min 0,0 UV-I 0 W/m 0,0 km/h (0 Bft)
11.10.2013 01:54 6,9 C 5,6 C 97 % 1011,4 hPa 0,0 l/m 0 min 0 min 0,0 UV-I 0 W/m 0,0 km/h (0 Bft)
11.10.2013 01:56 6,9 C 5,6 C 97 % 1011,5 hPa 0,0 l/m 0 min 0 min 0,0 UV-I 0 W/m 2,6 km/h (1 Bft)
11.10.2013 01:58 6,9 C 5,6 C 97 % 1011,6 hPa 0,0 l/m 0 min 0 min 0,0 UV-I 0 W/m 7,7 km/h (2 Bft)
11.10.2013 02:00 6,9 C 5,6 C 97 % 1011,6 hPa 0,0 l/m 0 min 0 min 0,0 UV-I 0 W/m 5,1 km/h (1 Bft)
11.10.2013 02:02 6,8 C 5,6 C 97 % 1011,6 hPa 0,0 l/m 0 min 0 min 0,0 UV-I 0 W/m 2,6 km/h (1 Bft)
11.10.2013 02:06 6,8 C 5,6 C 97 % 1011,7 hPa 0,0 l/m 0 min 0 min 0,0 UV-I 0 W/m 0,0 km/h (0 Bft)
11.10.2013 02:08 6,7 C 5,6 C 97 % 1011,8 hPa 0,0 l/m 0 min 0 min 0,0 UV-I 0 W/m 0,0 km/h (0 Bft)
11.10.2013 02:10 6,7 C 5,6 C 97 % 1011,8 hPa 0,0 l/m 0 min 0 min 0,0 UV-I 0 W/m 0,0 km/h (0 Bft)
11.10.2013 02:12 6,7 C 5,6 C 97 % 1011,8 hPa 0,0 l/m 0 min 0 min 0,0 UV-I 0 W/m 0,0 km/h (0 Bft)
11.10.2013 02:14 6,6 C 5,6 C 97 % 1011,8 hPa 0,0 l/m 0 min 0 min 0,0 UV-I 0 W/m 0,0 km/h (0 Bft)
11.10.2013 02:16 6,6 C 5,0 C 97 % 1011,8 hPa 0,0 l/m 0 min 0 min 0,0 UV-I 0 W/m 0,0 km/h (0 Bft)
11.10.2013 02:18 6,6 C 5,0 C 97 % 1011,8 hPa 0,0 l/m 0 min 0 min 0,0 UV-I 0 W/m 0,0 km/h (0 Bft)
11.10.2013 02:20 6,5 C 5,0 C 97 % 1011,9 hPa 0,0 l/m 0 min 0 min 0,0 UV-I 0 W/m 0,0 km/h (0 Bft)
11.10.2013 02:22 6,4 C 5,0 C 97 % 1012,0 hPa 0,0 l/m 0 min 0 min 0,0 UV-I 0 W/m 0,0 km/h (0 Bft)
11.10.2013 02:24 6,4 C 5,0 C 97 % 1012,1 hPa 0,0 l/m 0 min 0 min 0,0 UV-I 0 W/m 0,0 km/h (0 Bft)
11.10.2013 02:26 6,4 C 5,0 C 97 % 1012,1 hPa 0,0 l/m 0 min 0 min 0,0 UV-I 0 W/m 0,0 km/h (0 Bft)
11.10.2013 02:28 6,4 C 5,0 C 97 % 1012,2 hPa 0,0 l/m 0 min 0 min 0,0 UV-I 0 W/m 0,0 km/h (0 Bft)
11.10.2013 02:30 6,4 C 5,0 C 97 % 1012,3 hPa 0,0 l/m 0 min 0 min 0,0 UV-I 0 W/m 0,0 km/h (0 Bft)
11.10.2013 02:32 6,4 C 5,0 C 97 % 1012,3 hPa 0,0 l/m 0 min 0 min 0,0 UV-I 0 W/m 0,0 km/h (0 Bft)
11.10.2013 02:34 6,4 C 5,0 C 97 % 1012,3 hPa 0,0 l/m 0 min 0 min 0,0 UV-I 0 W/m 0,0 km/h (0 Bft)
11.10.2013 02:36 6,4 C 5,0 C 97 % 1012,4 hPa 0,0 l/m 0 min 0 min 0,0 UV-I 0 W/m 0,0 km/h (0 Bft)
11.10.2013 02:38 6,3 C 5,0 C 97 % 1012,4 hPa 0,0 l/m 0 min 0 min 0,0 UV-I 0 W/m 0,0 km/h (0 Bft)
11.10.2013 02:40 6,3 C 5,0 C 97 % 1012,5 hPa 0,0 l/m 0 min 0 min 0,0 UV-I 0 W/m 0,0 km/h (0 Bft)
11.10.2013 02:42 6,2 C 5,0 C 97 % 1012,4 hPa 0,0 l/m 0 min 0 min 0,0 UV-I 0 W/m 0,0 km/h (0 Bft)
11.10.2013 02:44 6,2 C 5,0 C 97 % 1012,4 hPa 0,0 l/m 0 min 0 min 0,0 UV-I 0 W/m 0,0 km/h (0 Bft)
11.10.2013 02:46 6,1 C 5,0 C 97 % 1012,4 hPa 0,0 l/m 0 min 0 min 0,0 UV-I 0 W/m 0,0 km/h (0 Bft)
11.10.2013 02:48 6,1 C 5,0 C 97 % 1012,4 hPa 0,0 l/m 0 min 0 min 0,0 UV-I 0 W/m 0,0 km/h (0 Bft)
11.10.2013 02:50 6,1 C 5,0 C 97 % 1012,4 hPa 0,0 l/m 0 min 0 min 0,0 UV-I 0 W/m 0,0 km/h (0 Bft)
11.10.2013 02:52 6,1 C 5,0 C 97 % 1012,2 hPa 0,0 l/m 0 min 0 min 0,0 UV-I 0 W/m 0,0 km/h (0 Bft)
11.10.2013 02:54 6,0 C 4,4 C 97 % 1012,3 hPa 0,0 l/m 0 min 0 min 0,0 UV-I 0 W/m 0,0 km/h (0 Bft)
11.10.2013 02:56 6,0 C 4,4 C 97 % 1012,3 hPa 0,0 l/m 0 min 0 min 0,0 UV-I 0 W/m 0,0 km/h (0 Bft)
11.10.2013 02:58 5,9 C 4,4 C 97 % 1012,3 hPa 0,0 l/m 0 min 0 min 0,0 UV-I 0 W/m 0,0 km/h (0 Bft)
11.10.2013 03:00 5,9 C 4,4 C 97 % 1012,4 hPa 0,0 l/m 0 min 0 min 0,0 UV-I 0 W/m 0,0 km/h (0 Bft)
11.10.2013 03:02 5,9 C 4,4 C 97 % 1012,4 hPa 0,0 l/m 0 min 0 min 0,0 UV-I 0 W/m 0,0 km/h (0 Bft)
11.10.2013 03:07 5,7 C 4,4 C 97 % 1012,4 hPa 0,0 l/m 0 min 0 min 0,0 UV-I 0 W/m 0,0 km/h (0 Bft)
11.10.2013 03:08 5,7 C 4,4 C 97 % 1012,4 hPa 0,0 l/m 0 min 0 min 0,0 UV-I 0 W/m 0,0 km/h (0 Bft)
11.10.2013 03:10 5,6 C 3,9 C 97 % 1012,4 hPa 0,0 l/m 0 min 0 min 0,0 UV-I 0 W/m 0,0 km/h (0 Bft)
11.10.2013 03:12 5,5 C 3,9 C 97 % 1012,4 hPa 0,0 l/m 0 min 0 min 0,0 UV-I 0 W/m 0,0 km/h (0 Bft)
11.10.2013 03:14 5,5 C 3,9 C 97 % 1012,4 hPa 0,0 l/m 0 min 0 min 0,0 UV-I 0 W/m 0,0 km/h (0 Bft)
11.10.2013 03:16 5,4 C 3,9 C 97 % 1012,3 hPa 0,0 l/m 0 min 0 min 0,0 UV-I 0 W/m 0,0 km/h (0 Bft)
11.10.2013 03:18 5,4 C 3,9 C 97 % 1012,3 hPa 0,0 l/m 0 min 0 min 0,0 UV-I 0 W/m 0,0 km/h (0 Bft)
11.10.2013 03:20 5,3 C 3,9 C 97 % 1012,3 hPa 0,0 l/m 0 min 0 min 0,0 UV-I 0 W/m 0,0 km/h (0 Bft)
11.10.2013 03:22 5,3 C 3,9 C 97 % 1012,3 hPa 0,0 l/m 0 min 0 min 0,0 UV-I 0 W/m 0,0 km/h (0 Bft)
11.10.2013 03:24 5,2 C 3,9 C 97 % 1012,4 hPa 0,0 l/m 0 min 0 min 0,0 UV-I 0 W/m 0,0 km/h (0 Bft)
11.10.2013 03:26 5,2 C 3,9 C 97 % 1012,4 hPa 0,0 l/m 0 min 0 min 0,0 UV-I 0 W/m 0,0 km/h (0 Bft)
11.10.2013 03:28 5,2 C 3,9 C 97 % 1012,4 hPa 0,0 l/m 0 min 0 min 0,0 UV-I 0 W/m 0,0 km/h (0 Bft)
11.10.2013 03:30 5,2 C 3,9 C 97 % 1012,4 hPa 0,0 l/m 0 min 0 min 0,0 UV-I 0 W/m 0,0 km/h (0 Bft)
11.10.2013 03:32 5,2 C 3,9 C 97 % 1012,4 hPa 0,0 l/m 0 min 0 min 0,0 UV-I 0 W/m 0,0 km/h (0 Bft)
11.10.2013 03:34 5,2 C 3,9 C 97 % 1012,4 hPa 0,0 l/m 0 min 0 min 0,0 UV-I 0 W/m 0,0 km/h (0 Bft)
11.10.2013 03:36 5,2 C 3,9 C 97 % 1012,4 hPa 0,0 l/m 0 min 0 min 0,0 UV-I 0 W/m 0,0 km/h (0 Bft)
11.10.2013 03:38 5,2 C 3,9 C 97 % 1012,4 hPa 0,0 l/m 0 min 0 min 0,0 UV-I 0 W/m 0,0 km/h (0 Bft)
11.10.2013 03:40 5,1 C 3,9 C 97 % 1012,5 hPa 0,0 l/m 0 min 0 min 0,0 UV-I 0 W/m 0,0 km/h (0 Bft)
11.10.2013 03:42 5,1 C 3,9 C 97 % 1012,5 hPa 0,0 l/m 0 min 0 min 0,0 UV-I 0 W/m 0,0 km/h (0 Bft)
11.10.2013 03:44 5,2 C 3,9 C 97 % 1012,5 hPa 0,0 l/m 0 min 0 min 0,0 UV-I 0 W/m 0,0 km/h (0 Bft)
11.10.2013 03:46 5,1 C 3,9 C 97 % 1012,6 hPa 0,0 l/m 0 min 0 min 0,0 UV-I 0 W/m 0,0 km/h (0 Bft)
11.10.2013 03:48 5,1 C 3,9 C 97 % 1012,6 hPa 0,0 l/m 0 min 0 min 0,0 UV-I 0 W/m 0,0 km/h (0 Bft)
11.10.2013 03:50 5,2 C 3,9 C 97 % 1012,5 hPa 0,0 l/m 0 min 0 min 0,0 UV-I 0 W/m 0,0 km/h (0 Bft)
11.10.2013 03:52 5,2 C 3,9 C 97 % 1012,5 hPa 0,0 l/m 0 min 0 min 0,0 UV-I 0 W/m 0,0 km/h (0 Bft)
11.10.2013 03:54 5,3 C 3,9 C 97 % 1012,5 hPa 0,0 l/m 0 min 0 min 0,0 UV-I 0 W/m 0,0 km/h (0 Bft)
11.10.2013 03:56 5,3 C 3,9 C 97 % 1012,5 hPa 0,0 l/m 0 min 0 min 0,0 UV-I 0 W/m 0,0 km/h (0 Bft)
11.10.2013 03:58 5,3 C 3,9 C 97 % 1012,5 hPa 0,0 l/m 0 min 0 min 0,0 UV-I 0 W/m 0,0 km/h (0 Bft)
11.10.2013 04:00 5,3 C 4,4 C 97 % 1012,6 hPa 0,0 l/m 0 min 0 min 0,0 UV-I 0 W/m 0,0 km/h (0 Bft)
11.10.2013 04:02 5,4 C 4,4 C 97 % 1012,5 hPa 0,0 l/m 0 min 0 min 0,0 UV-I 0 W/m 0,0 km/h (0 Bft)
11.10.2013 04:06 5,4 C 4,4 C 97 % 1012,6 hPa 0,0 l/m 0 min 0 min 0,0 UV-I 0 W/m 0,0 km/h (0 Bft)
11.10.2013 04:08 5,4 C 4,4 C 97 % 1012,7 hPa 0,0 l/m 0 min 0 min 0,0 UV-I 0 W/m 0,0 km/h (0 Bft)
11.10.2013 04:10 5,4 C 4,4 C 97 % 1012,6 hPa 0,0 l/m 0 min 0 min 0,0 UV-I 0 W/m 0,0 km/h (0 Bft)
11.10.2013 04:12 5,5 C 4,4 C 97 % 1012,7 hPa 0,0 l/m 0 min 0 min 0,0 UV-I 0 W/m 0,0 km/h (0 Bft)
11.10.2013 04:14 5,5 C 4,4 C 97 % 1012,7 hPa 0,0 l/m 0 min 0 min 0,0 UV-I 0 W/m 0,0 km/h (0 Bft)
11.10.2013 04:16 5,5 C 4,4 C 97 % 1012,7 hPa 0,0 l/m 0 min 0 min 0,0 UV-I 0 W/m 0,0 km/h (0 Bft)
11.10.2013 04:18 5,5 C 4,4 C 97 % 1012,7 hPa 0,0 l/m 0 min 0 min 0,0 UV-I 0 W/m 0,0 km/h (0 Bft)
11.10.2013 04:20 5,6 C 4,4 C 97 % 1012,7 hPa 0,0 l/m 0 min 0 min 0,0 UV-I 0 W/m 0,0 km/h (0 Bft)
11.10.2013 04:22 5,6 C 4,4 C 97 % 1012,7 hPa 0,0 l/m 0 min 0 min 0,0 UV-I 0 W/m 0,0 km/h (0 Bft)
11.10.2013 04:24 5,6 C 4,4 C 97 % 1012,7 hPa 0,0 l/m 0 min 0 min 0,0 UV-I 0 W/m 0,0 km/h (0 Bft)
11.10.2013 04:26 5,6 C 4,4 C 97 % 1012,8 hPa 0,0 l/m 0 min 0 min 0,0 UV-I 0 W/m 0,0 km/h (0 Bft)
11.10.2013 04:28 5,6 C 4,4 C 97 % 1012,8 hPa 0,0 l/m 0 min 0 min 0,0 UV-I 0 W/m 0,0 km/h (0 Bft)
11.10.2013 04:30 5,6 C 4,4 C 97 % 1012,8 hPa 0,0 l/m 0 min 0 min 0,0 UV-I 0 W/m 0,0 km/h (0 Bft)
11.10.2013 04:32 5,6 C 4,4 C 97 % 1012,9 hPa 0,0 l/m 0 min 0 min 0,0 UV-I 0 W/m 0,0 km/h (0 Bft)
11.10.2013 04:34 5,6 C 4,4 C 97 % 1012,9 hPa 0,0 l/m 0 min 0 min 0,0 UV-I 0 W/m 0,0 km/h (0 Bft)
11.10.2013 04:36 5,6 C 5,0 C 98 % 1012,8 hPa 0,0 l/m 0 min 0 min 0,0 UV-I 0 W/m 0,0 km/h (0 Bft)
11.10.2013 04:38 5,7 C 5,0 C 98 % 1012,9 hPa 0,0 l/m 0 min 0 min 0,0 UV-I 0 W/m 0,0 km/h (0 Bft)
11.10.2013 04:40 5,7 C 5,0 C 98 % 1012,9 hPa 0,0 l/m 0 min 0 min 0,0 UV-I 0 W/m 0,0 km/h (0 Bft)
11.10.2013 04:42 5,7 C 5,0 C 98 % 1012,8 hPa 0,0 l/m 0 min 0 min 0,0 UV-I 0 W/m 0,0 km/h (0 Bft)
11.10.2013 04:44 5,7 C 5,0 C 98 % 1012,9 hPa 0,0 l/m 0 min 0 min 0,0 UV-I 0 W/m 2,6 km/h (1 Bft)
11.10.2013 04:46 5,7 C 5,0 C 98 % 1012,8 hPa 0,0 l/m 0 min 0 min 0,0 UV-I 0 W/m 0,0 km/h (0 Bft)
11.10.2013 04:48 5,7 C 5,0 C 98 % 1012,8 hPa 0,0 l/m 0 min 0 min 0,0 UV-I 0 W/m 0,0 km/h (0 Bft)
11.10.2013 04:50 5,7 C 5,0 C 98 % 1012,8 hPa 0,0 l/m 0 min 0 min 0,0 UV-I 0 W/m 0,0 km/h (0 Bft)
11.10.2013 04:52 5,7 C 5,0 C 98 % 1012,8 hPa 0,0 l/m 0 min 0 min 0,0 UV-I 0 W/m 0,0 km/h (0 Bft)
11.10.2013 04:54 5,7 C 5,0 C 98 % 1012,8 hPa 0,0 l/m 0 min 0 min 0,0 UV-I 0 W/m 0,0 km/h (0 Bft)
11.10.2013 04:56 5,7 C 5,0 C 98 % 1012,8 hPa 0,0 l/m 0 min 0 min 0,0 UV-I 0 W/m 0,0 km/h (0 Bft)
11.10.2013 04:58 5,8 C 5,0 C 98 % 1012,8 hPa 0,0 l/m 0 min 0 min 0,0 UV-I 0 W/m 0,0 km/h (0 Bft)
11.10.2013 05:00 5,8 C 5,0 C 98 % 1012,8 hPa 0,0 l/m 0 min 0 min 0,0 UV-I 0 W/m 0,0 km/h (0 Bft)
11.10.2013 05:02 5,8 C 5,0 C 98 % 1012,8 hPa 0,0 l/m 0 min 0 min 0,0 UV-I 0 W/m 0,0 km/h (0 Bft)
11.10.2013 05:06 5,8 C 5,0 C 98 % 1012,8 hPa 0,0 l/m 0 min 0 min 0,0 UV-I 0 W/m 0,0 km/h (0 Bft)
11.10.2013 05:08 5,8 C 5,0 C 98 % 1012,8 hPa 0,0 l/m 0 min 0 min 0,0 UV-I 0 W/m 0,0 km/h (0 Bft)
11.10.2013 05:10 5,8 C 5,0 C 98 % 1012,8 hPa 0,0 l/m 0 min 0 min 0,0 UV-I 0 W/m 0,0 km/h (0 Bft)
11.10.2013 05:12 5,8 C 5,0 C 98 % 1012,9 hPa 0,0 l/m 0 min 0 min 0,0 UV-I 0 W/m 0,0 km/h (0 Bft)
11.10.2013 05:14 5,8 C 5,0 C 98 % 1012,8 hPa 0,0 l/m 0 min 0 min 0,0 UV-I 0 W/m 0,0 km/h (0 Bft)
11.10.2013 05:16 5,8 C 5,0 C 98 % 1012,8 hPa 0,0 l/m 0 min 0 min 0,0 UV-I 0 W/m 0,0 km/h (0 Bft)
11.10.2013 05:18 5,8 C 5,0 C 98 % 1012,8 hPa 0,0 l/m 0 min 0 min 0,0 UV-I 0 W/m 0,0 km/h (0 Bft)
11.10.2013 05:20 5,7 C 5,0 C 98 % 1012,9 hPa 0,0 l/m 0 min 0 min 0,0 UV-I 0 W/m 0,0 km/h (0 Bft)
11.10.2013 05:22 5,8 C 5,0 C 98 % 1012,9 hPa 0,0 l/m 0 min 0 min 0,0 UV-I 0 W/m 0,0 km/h (0 Bft)
11.10.2013 05:24 5,8 C 5,0 C 98 % 1012,9 hPa 0,0 l/m 0 min 0 min 0,0 UV-I 0 W/m 0,0 km/h (0 Bft)
11.10.2013 05:26 5,8 C 5,0 C 98 % 1012,9 hPa 0,0 l/m 0 min 0 min 0,0 UV-I 0 W/m 0,0 km/h (0 Bft)
11.10.2013 05:28 5,8 C 5,0 C 98 % 1012,8 hPa 0,0 l/m 0 min 0 min 0,0 UV-I 0 W/m 0,0 km/h (0 Bft)
11.10.2013 05:30 5,8 C 5,0 C 98 % 1012,8 hPa 0,0 l/m 0 min 0 min 0,0 UV-I 0 W/m 0,0 km/h (0 Bft)
11.10.2013 05:32 5,8 C 5,0 C 98 % 1012,9 hPa 0,0 l/m 0 min 0 min 0,0 UV-I 0 W/m 0,0 km/h (0 Bft)
11.10.2013 05:34 5,8 C 5,0 C 98 % 1013,0 hPa 0,0 l/m 0 min 0 min 0,0 UV-I 0 W/m 0,0 km/h (0 Bft)
11.10.2013 05:36 5,8 C 5,0 C 98 % 1013,1 hPa 0,0 l/m 0 min 0 min 0,0 UV-I 0 W/m 0,0 km/h (0 Bft)
11.10.2013 05:38 5,8 C 5,0 C 98 % 1013,1 hPa 0,0 l/m 0 min 0 min 0,0 UV-I 0 W/m 0,0 km/h (0 Bft)
11.10.2013 05:40 5,8 C 5,0 C 98 % 1013,0 hPa 0,0 l/m 0 min 0 min 0,0 UV-I 0 W/m 0,0 km/h (0 Bft)
11.10.2013 05:42 5,8 C 5,0 C 98 % 1013,0 hPa 0,0 l/m 0 min 0 min 0,0 UV-I 0 W/m 0,0 km/h (0 Bft)
11.10.2013 05:44 5,8 C 5,0 C 98 % 1012,9 hPa 0,0 l/m 0 min 0 min 0,0 UV-I 0 W/m 0,0 km/h (0 Bft)
11.10.2013 05:46 5,8 C 5,0 C 98 % 1013,0 hPa 0,0 l/m 0 min 0 min 0,0 UV-I 0 W/m 0,0 km/h (0 Bft)
11.10.2013 05:48 5,8 C 5,0 C 98 % 1013,1 hPa 0,0 l/m 0 min 0 min 0,0 UV-I 0 W/m 0,0 km/h (0 Bft)
11.10.2013 05:50 5,8 C 5,0 C 98 % 1013,1 hPa 0,0 l/m 0 min 0 min 0,0 UV-I 0 W/m 0,0 km/h (0 Bft)
11.10.2013 05:52 5,8 C 5,0 C 98 % 1013,1 hPa 0,0 l/m 0 min 0 min 0,0 UV-I 0 W/m 0,0 km/h (0 Bft)
11.10.2013 05:54 5,8 C 5,0 C 98 % 1013,2 hPa 0,0 l/m 0 min 0 min 0,0 UV-I 0 W/m 0,0 km/h (0 Bft)
11.10.2013 05:56 5,8 C 5,0 C 98 % 1013,1 hPa 0,0 l/m 0 min 0 min 0,0 UV-I 0 W/m 0,0 km/h (0 Bft)
11.10.2013 05:58 5,8 C 5,0 C 98 % 1013,1 hPa 0,0 l/m 0 min 0 min 0,0 UV-I 0 W/m 0,0 km/h (0 Bft)
11.10.2013 06:00 5,8 C 5,0 C 97 % 1013,1 hPa 0,0 l/m 0 min 0 min 0,0 UV-I 0 W/m 0,0 km/h (0 Bft)
11.10.2013 06:02 5,8 C 5,0 C 97 % 1013,2 hPa 0,0 l/m 0 min 0 min 0,0 UV-I 0 W/m 0,0 km/h (0 Bft)
11.10.2013 06:06 5,8 C 5,0 C 97 % 1013,3 hPa 0,0 l/m 0 min 0 min 0,0 UV-I 0 W/m 0,0 km/h (0 Bft)
11.10.2013 06:08 5,9 C 5,0 C 97 % 1013,3 hPa 0,0 l/m 0 min 0 min 0,0 UV-I 0 W/m 2,6 km/h (1 Bft)
11.10.2013 06:10 5,9 C 5,0 C 97 % 1013,4 hPa 0,0 l/m 0 min 0 min 0,0 UV-I 0 W/m 5,1 km/h (1 Bft)
11.10.2013 06:12 5,9 C 5,0 C 97 % 1013,4 hPa 0,0 l/m 0 min 0 min 0,0 UV-I 0 W/m 7,7 km/h (2 Bft)
11.10.2013 06:14 5,9 C 5,0 C 97 % 1013,4 hPa 0,0 l/m 0 min 0 min 0,0 UV-I 0 W/m 0,0 km/h (0 Bft)
11.10.2013 06:16 5,9 C 5,0 C 97 % 1013,3 hPa 0,0 l/m 0 min 0 min 0,0 UV-I 0 W/m 0,0 km/h (0 Bft)
11.10.2013 06:18 5,9 C 5,0 C 97 % 1013,2 hPa 0,0 l/m 0 min 0 min 0,0 UV-I 0 W/m 0,0 km/h (0 Bft)
11.10.2013 06:20 5,9 C 5,0 C 97 % 1013,1 hPa 0,0 l/m 0 min 0 min 0,0 UV-I 0 W/m 0,0 km/h (0 Bft)
11.10.2013 06:22 5,9 C 5,0 C 97 % 1013,1 hPa 0,0 l/m 0 min 0 min 0,0 UV-I 0 W/m 0,0 km/h (0 Bft)
11.10.2013 06:24 5,9 C 5,0 C 97 % 1013,1 hPa 0,0 l/m 0 min 0 min 0,0 UV-I 0 W/m 0,0 km/h (0 Bft)
11.10.2013 06:26 5,9 C 5,0 C 97 % 1013,1 hPa 0,0 l/m 0 min 0 min 0,0 UV-I 0 W/m 0,0 km/h (0 Bft)
11.10.2013 06:28 5,9 C 5,0 C 97 % 1013,2 hPa 0,0 l/m 0 min 0 min 0,0 UV-I 0 W/m 0,0 km/h (0 Bft)
11.10.2013 06:30 5,9 C 5,0 C 97 % 1013,2 hPa 0,0 l/m 0 min 0 min 0,0 UV-I 0 W/m 0,0 km/h (0 Bft)
11.10.2013 06:32 5,9 C 5,0 C 97 % 1013,2 hPa 0,0 l/m 0 min 0 min 0,0 UV-I 0 W/m 0,0 km/h (0 Bft)
11.10.2013 06:34 5,9 C 5,0 C 97 % 1013,3 hPa 0,0 l/m 0 min 0 min 0,0 UV-I 0 W/m 0,0 km/h (0 Bft)
11.10.2013 06:36 5,9 C 5,0 C 97 % 1013,2 hPa 0,0 l/m 0 min 0 min 0,0 UV-I 0 W/m 0,0 km/h (0 Bft)
11.10.2013 06:38 5,9 C 5,0 C 97 % 1013,3 hPa 0,0 l/m 0 min 0 min 0,0 UV-I 0 W/m 0,0 km/h (0 Bft)
11.10.2013 06:40 5,9 C 5,0 C 97 % 1013,3 hPa 0,0 l/m 0 min 0 min 0,0 UV-I 0 W/m 0,0 km/h (0 Bft)
11.10.2013 06:42 5,9 C 5,0 C 97 % 1013,4 hPa 0,0 l/m 0 min 0 min 0,0 UV-I 0 W/m 0,0 km/h (0 Bft)
11.10.2013 06:44 5,9 C 5,0 C 97 % 1013,4 hPa 0,0 l/m 0 min 0 min 0,0 UV-I 0 W/m 0,0 km/h (0 Bft)
11.10.2013 06:46 6,0 C 5,0 C 97 % 1013,3 hPa 0,0 l/m 0 min 0 min 0,0 UV-I 0 W/m 0,0 km/h (0 Bft)
11.10.2013 06:48 6,0 C 5,0 C 97 % 1013,4 hPa 0,0 l/m 0 min 0 min 0,0 UV-I 0 W/m 0,0 km/h (0 Bft)
11.10.2013 06:50 6,0 C 5,0 C 97 % 1013,4 hPa 0,0 l/m 0 min 0 min 0,0 UV-I 0 W/m 0,0 km/h (0 Bft)
11.10.2013 06:52 5,9 C 5,0 C 97 % 1013,4 hPa 0,0 l/m 0 min 0 min 0,0 UV-I 0 W/m 0,0 km/h (0 Bft)
11.10.2013 06:54 5,9 C 5,0 C 97 % 1013,4 hPa 0,0 l/m 0 min 0 min 0,0 UV-I 0 W/m 0,0 km/h (0 Bft)
11.10.2013 06:56 5,9 C 5,0 C 97 % 1013,4 hPa 0,0 l/m 0 min 0 min 0,0 UV-I 0 W/m 0,0 km/h (0 Bft)
11.10.2013 06:58 5,9 C 5,0 C 97 % 1013,4 hPa 0,0 l/m 0 min 0 min 0,0 UV-I 0 W/m 0,0 km/h (0 Bft)
11.10.2013 07:00 5,9 C 5,0 C 97 % 1013,5 hPa 0,0 l/m 0 min 0 min 0,0 UV-I 0 W/m 0,0 km/h (0 Bft)
11.10.2013 07:02 5,9 C 5,0 C 97 % 1013,5 hPa 0,0 l/m 0 min 0 min 0,0 UV-I 0 W/m 0,0 km/h (0 Bft)
11.10.2013 07:06 6,0 C 5,0 C 97 % 1013,6 hPa 0,0 l/m 0 min 0 min 0,0 UV-I 0 W/m 0,0 km/h (0 Bft)
11.10.2013 07:08 6,0 C 5,0 C 97 % 1013,7 hPa 0,0 l/m 0 min 0 min 0,0 UV-I 0 W/m 0,0 km/h (0 Bft)
11.10.2013 07:10 6,0 C 5,0 C 96 % 1013,8 hPa 0,0 l/m 0 min 0 min 0,0 UV-I 0 W/m 0,0 km/h (0 Bft)
11.10.2013 07:12 6,0 C 5,0 C 96 % 1013,9 hPa 0,0 l/m 0 min 0 min 0,0 UV-I 0 W/m 0,0 km/h (0 Bft)
11.10.2013 07:14 6,0 C 5,0 C 96 % 1014,1 hPa 0,0 l/m 0 min 0 min 0,0 UV-I 0 W/m 0,0 km/h (0 Bft)
11.10.2013 07:16 6,0 C 5,0 C 96 % 1014,1 hPa 0,0 l/m 0 min 0 min 0,0 UV-I 0 W/m 0,0 km/h (0 Bft)
11.10.2013 07:18 6,0 C 5,0 C 96 % 1014,1 hPa 0,0 l/m 0 min 0 min 0,0 UV-I 0 W/m 0,0 km/h (0 Bft)
11.10.2013 07:20 5,9 C 5,0 C 96 % 1014,1 hPa 0,0 l/m 0 min 0 min 0,0 UV-I 0 W/m 0,0 km/h (0 Bft)
11.10.2013 07:22 6,0 C 5,0 C 96 % 1014,1 hPa 0,0 l/m 0 min 0 min 0,0 UV-I 0 W/m 0,0 km/h (0 Bft)
11.10.2013 07:24 6,0 C 5,0 C 96 % 1014,1 hPa 0,0 l/m 0 min 0 min 0,0 UV-I 0 W/m 0,0 km/h (0 Bft)
11.10.2013 07:26 5,9 C 5,0 C 96 % 1014,2 hPa 0,0 l/m 0 min 0 min 0,0 UV-I 0 W/m 0,0 km/h (0 Bft)
11.10.2013 07:28 5,9 C 5,0 C 97 % 1014,1 hPa 0,0 l/m 0 min 0 min 0,0 UV-I 0 W/m 0,0 km/h (0 Bft)
11.10.2013 07:30 5,9 C 5,0 C 97 % 1014,0 hPa 0,0 l/m 0 min 0 min 0,0 UV-I 0 W/m 0,0 km/h (0 Bft)
11.10.2013 07:32 5,9 C 5,0 C 97 % 1014,1 hPa 0,0 l/m 0 min 0 min 0,0 UV-I 0 W/m 0,0 km/h (0 Bft)
11.10.2013 07:34 6,0 C 5,0 C 97 % 1014,1 hPa 0,0 l/m 0 min 0 min 0,0 UV-I 0 W/m 0,0 km/h (0 Bft)
11.10.2013 07:36 5,9 C 5,0 C 97 % 1014,1 hPa 0,0 l/m 0 min 0 min 0,0 UV-I 0 W/m 0,0 km/h (0 Bft)
11.10.2013 07:38 5,9 C 5,0 C 97 % 1014,2 hPa 0,0 l/m 0 min 0 min 0,0 UV-I 0 W/m 0,0 km/h (0 Bft)
11.10.2013 07:40 5,9 C 5,0 C 97 % 1014,2 hPa 0,0 l/m 0 min 0 min 0,0 UV-I 0 W/m 0,0 km/h (0 Bft)
11.10.2013 07:42 5,9 C 5,0 C 97 % 1014,1 hPa 0,0 l/m 0 min 0 min 0,0 UV-I 0 W/m 0,0 km/h (0 Bft)
11.10.2013 07:44 5,9 C 5,0 C 97 % 1014,1 hPa 0,0 l/m 0 min 0 min 0,0 UV-I 0 W/m 0,0 km/h (0 Bft)
11.10.2013 07:46 5,9 C 5,0 C 97 % 1014,3 hPa 0,0 l/m 0 min 0 min 0,0 UV-I 0 W/m 0,0 km/h (0 Bft)
11.10.2013 07:48 6,0 C 5,0 C 97 % 1014,4 hPa 0,0 l/m 0 min 0 min 0,0 UV-I 0 W/m 0,0 km/h (0 Bft)
11.10.2013 07:50 6,0 C 5,0 C 97 % 1014,3 hPa 0,0 l/m 0 min 0 min 0,0 UV-I 0 W/m 0,0 km/h (0 Bft)
11.10.2013 07:52 6,0 C 5,0 C 97 % 1014,1 hPa 0,0 l/m 0 min 0 min 0,0 UV-I 0 W/m 0,0 km/h (0 Bft)
11.10.2013 07:54 6,0 C 5,0 C 97 % 1014,1 hPa 0,0 l/m 0 min 0 min 0,0 UV-I 0 W/m 0,0 km/h (0 Bft)
11.10.2013 07:56 6,1 C 5,0 C 97 % 1014,2 hPa 0,0 l/m 0 min 0 min 0,0 UV-I 0 W/m 0,0 km/h (0 Bft)
11.10.2013 07:58 6,1 C 5,0 C 97 % 1014,3 hPa 0,0 l/m 0 min 0 min 0,0 UV-I 0 W/m 0,0 km/h (0 Bft)
11.10.2013 08:00 6,1 C 5,0 C 97 % 1014,5 hPa 0,0 l/m 0 min 0 min 0,0 UV-I 0 W/m 0,0 km/h (0 Bft)
11.10.2013 08:02 6,1 C 5,0 C 97 % 1014,5 hPa 0,0 l/m 0 min 0 min 0,0 UV-I 0 W/m 0,0 km/h (0 Bft)
11.10.2013 08:06 6,1 C 5,0 C 97 % 1014,4 hPa 0,0 l/m 0 min 0 min 0,0 UV-I 5 W/m 0,0 km/h (0 Bft)
11.10.2013 08:08 6,1 C 5,0 C 97 % 1014,4 hPa 0,0 l/m 0 min 0 min 0,0 UV-I 5 W/m 0,0 km/h (0 Bft)
11.10.2013 08:10 6,1 C 5,0 C 97 % 1014,4 hPa 0,0 l/m 0 min 0 min 0,0 UV-I 5 W/m 0,0 km/h (0 Bft)
11.10.2013 08:12 6,1 C 5,0 C 97 % 1014,3 hPa 0,0 l/m 0 min 0 min 0,0 UV-I 5 W/m 0,0 km/h (0 Bft)
11.10.2013 08:14 6,1 C 5,0 C 97 % 1014,3 hPa 0,0 l/m 0 min 0 min 0,0 UV-I 7 W/m 0,0 km/h (0 Bft)
11.10.2013 08:16 6,1 C 5,0 C 97 % 1014,2 hPa 0,0 l/m 0 min 0 min 0,0 UV-I 7 W/m 2,6 km/h (1 Bft)
11.10.2013 08:18 6,1 C 5,0 C 97 % 1014,1 hPa 0,0 l/m 0 min 0 min 0,0 UV-I 7 W/m 0,0 km/h (0 Bft)
11.10.2013 08:20 6,1 C 5,0 C 97 % 1014,1 hPa 0,0 l/m 0 min 0 min 0,0 UV-I 7 W/m 0,0 km/h (0 Bft)
11.10.2013 08:22 6,1 C 5,0 C 97 % 1014,2 hPa 0,0 l/m 0 min 0 min 0,0 UV-I 7 W/m 2,6 km/h (1 Bft)
11.10.2013 08:24 6,2 C 5,6 C 97 % 1014,2 hPa 0,0 l/m 0 min 0 min 0,0 UV-I 9 W/m 0,0 km/h (0 Bft)
11.10.2013 08:26 6,2 C 5,6 C 97 % 1014,2 hPa 0,0 l/m 0 min 0 min 0,0 UV-I 9 W/m 0,0 km/h (0 Bft)
11.10.2013 08:28 6,2 C 5,6 C 97 % 1014,4 hPa 0,0 l/m 0 min 0 min 0,0 UV-I 9 W/m 0,0 km/h (0 Bft)
11.10.2013 08:30 6,2 C 5,6 C 97 % 1014,4 hPa 0,0 l/m 0 min 0 min 0,0 UV-I 11 W/m 0,0 km/h (0 Bft)
11.10.2013 08:32 6,2 C 5,6 C 97 % 1014,4 hPa 0,0 l/m 0 min 0 min 0,0 UV-I 11 W/m 2,6 km/h (1 Bft)
11.10.2013 08:34 6,2 C 5,6 C 97 % 1014,5 hPa 0,0 l/m 0 min 0 min 0,0 UV-I 11 W/m 0,0 km/h (0 Bft)
11.10.2013 08:36 6,2 C 5,6 C 97 % 1014,5 hPa 0,0 l/m 0 min 0 min 0,0 UV-I 12 W/m 0,0 km/h (0 Bft)
11.10.2013 08:38 6,2 C 5,6 C 97 % 1014,3 hPa 0,0 l/m 0 min 0 min 0,0 UV-I 14 W/m 0,0 km/h (0 Bft)
11.10.2013 08:40 6,2 C 5,6 C 97 % 1014,3 hPa 0,0 l/m 0 min 0 min 0,0 UV-I 16 W/m 0,0 km/h (0 Bft)
11.10.2013 08:42 6,2 C 5,6 C 97 % 1014,4 hPa 0,0 l/m 0 min 0 min 0,0 UV-I 18 W/m 0,0 km/h (0 Bft)
11.10.2013 08:44 6,3 C 5,6 C 97 % 1014,4 hPa 0,0 l/m 0 min 0 min 0,0 UV-I 19 W/m 0,0 km/h (0 Bft)
11.10.2013 08:46 6,3 C 5,6 C 97 % 1014,4 hPa 0,0 l/m 0 min 0 min 0,0 UV-I 21 W/m 0,0 km/h (0 Bft)
11.10.2013 08:48 6,3 C 5,6 C 97 % 1014,4 hPa 0,0 l/m 0 min 0 min 0,0 UV-I 19 W/m 0,0 km/h (0 Bft)
11.10.2013 08:50 6,3 C 5,6 C 97 % 1014,5 hPa 0,0 l/m 0 min 0 min 0,0 UV-I 19 W/m 0,0 km/h (0 Bft)
11.10.2013 08:52 6,4 C 5,6 C 97 % 1014,5 hPa 0,0 l/m 0 min 0 min 0,0 UV-I 19 W/m 0,0 km/h (0 Bft)
11.10.2013 08:54 6,4 C 5,6 C 96 % 1014,5 hPa 0,0 l/m 0 min 0 min 0,0 UV-I 21 W/m 0,0 km/h (0 Bft)
11.10.2013 08:56 6,4 C 5,6 C 96 % 1014,5 hPa 0,0 l/m 0 min 0 min 0,0 UV-I 25 W/m 0,0 km/h (0 Bft)
11.10.2013 08:58 6,4 C 5,6 C 96 % 1014,5 hPa 0,0 l/m 0 min 0 min 0,0 UV-I 32 W/m 0,0 km/h (0 Bft)
11.10.2013 09:00 6,4 C 5,6 C 96 % 1014,6 hPa 0,0 l/m 0 min 0 min 0,0 UV-I 42 W/m 0,0 km/h (0 Bft)
11.10.2013 09:02 6,4 C 5,6 C 96 % 1014,6 hPa 0,0 l/m 0 min 0 min 0,0 UV-I 53 W/m 0,0 km/h (0 Bft)
11.10.2013 09:06 6,5 C 5,6 C 96 % 1014,6 hPa 0,0 l/m 0 min 0 min 0,0 UV-I 42 W/m 2,6 km/h (1 Bft)
11.10.2013 09:08 6,5 C 5,6 C 96 % 1014,6 hPa 0,0 l/m 0 min 0 min 0,0 UV-I 33 W/m 0,0 km/h (0 Bft)
11.10.2013 09:10 6,6 C 6,1 C 96 % 1014,6 hPa 0,0 l/m 0 min 0 min 0,0 UV-I 33 W/m 0,0 km/h (0 Bft)
11.10.2013 09:12 6,6 C 5,6 C 96 % 1014,6 hPa 0,0 l/m 0 min 0 min 0,0 UV-I 35 W/m 2,6 km/h (1 Bft)
11.10.2013 09:14 6,6 C 6,1 C 96 % 1014,6 hPa 0,0 l/m 0 min 0 min 0,0 UV-I 39 W/m 0,0 km/h (0 Bft)
11.10.2013 09:16 6,6 C 6,1 C 96 % 1014,6 hPa 0,0 l/m 0 min 0 min 0,0 UV-I 40 W/m 2,6 km/h (1 Bft)
11.10.2013 09:18 6,6 C 6,1 C 96 % 1014,7 hPa 0,0 l/m 0 min 0 min 0,0 UV-I 44 W/m 0,0 km/h (0 Bft)
11.10.2013 09:20 6,7 C 6,1 C 96 % 1014,7 hPa 0,0 l/m 0 min 0 min 0,0 UV-I 54 W/m 2,6 km/h (1 Bft)
11.10.2013 09:22 6,7 C 6,1 C 96 % 1014,6 hPa 0,0 l/m 0 min 2 min 0,0 UV-I 56 W/m 0,0 km/h (0 Bft)
11.10.2013 09:24 6,7 C 6,1 C 96 % 1014,6 hPa 0,0 l/m 0 min 0 min 0,0 UV-I 54 W/m 0,0 km/h (0 Bft)
11.10.2013 09:26 6,7 C 6,1 C 96 % 1014,6 hPa 0,0 l/m 0 min 2 min 0,0 UV-I 51 W/m 5,1 km/h (1 Bft)
11.10.2013 09:28 6,7 C 6,1 C 96 % 1014,6 hPa 0,0 l/m 0 min 0 min 0,0 UV-I 47 W/m 0,0 km/h (0 Bft)
11.10.2013 09:30 6,7 C 6,1 C 96 % 1014,5 hPa 0,0 l/m 0 min 2 min 0,0 UV-I 47 W/m 0,0 km/h (0 Bft)
11.10.2013 09:32 6,7 C 6,1 C 96 % 1014,6 hPa 0,0 l/m 0 min 2 min 0,0 UV-I 47 W/m 0,0 km/h (0 Bft)
11.10.2013 09:34 6,7 C 6,1 C 96 % 1014,7 hPa 0,0 l/m 0 min 0 min 0,0 UV-I 49 W/m 0,0 km/h (0 Bft)
11.10.2013 09:36 6,7 C 6,1 C 96 % 1014,7 hPa 0,0 l/m 0 min 0 min 0,0 UV-I 51 W/m 0,0 km/h (0 Bft)
11.10.2013 09:38 6,8 C 6,1 C 96 % 1014,6 hPa 0,0 l/m 0 min 0 min 0,0 UV-I 49 W/m 0,0 km/h (0 Bft)
11.10.2013 09:40 6,8 C 6,1 C 96 % 1014,6 hPa 0,0 l/m 0 min 0 min 0,0 UV-I 46 W/m 0,0 km/h (0 Bft)
11.10.2013 09:42 6,8 C 6,1 C 96 % 1014,6 hPa 0,0 l/m 0 min 0 min 0,0 UV-I 44 W/m 0,0 km/h (0 Bft)
11.10.2013 09:44 6,8 C 6,1 C 96 % 1014,6 hPa 0,0 l/m 0 min 0 min 0,0 UV-I 44 W/m 2,6 km/h (1 Bft)
11.10.2013 09:46 6,8 C 6,1 C 96 % 1014,6 hPa 0,0 l/m 0 min 0 min 0,0 UV-I 53 W/m 0,0 km/h (0 Bft)
11.10.2013 09:48 6,8 C 6,1 C 95 % 1014,5 hPa 0,0 l/m 0 min 0 min 0,0 UV-I 62 W/m 2,6 km/h (1 Bft)
11.10.2013 09:50 6,8 C 6,1 C 95 % 1014,6 hPa 0,0 l/m 0 min 0 min 0,0 UV-I 65 W/m 0,0 km/h (0 Bft)
11.10.2013 09:52 6,9 C 6,7 C 95 % 1014,7 hPa 0,0 l/m 0 min 0 min 0,0 UV-I 62 W/m 0,0 km/h (0 Bft)
11.10.2013 09:54 6,9 C 6,7 C 96 % 1014,7 hPa 0,0 l/m 0 min 0 min 0,0 UV-I 60 W/m 2,6 km/h (1 Bft)
11.10.2013 09:56 6,9 C 6,7 C 96 % 1014,6 hPa 0,0 l/m 0 min 0 min 0,0 UV-I 62 W/m 0,0 km/h (0 Bft)
11.10.2013 09:58 7,0 C 6,7 C 96 % 1014,6 hPa 0,0 l/m 0 min 0 min 0,0 UV-I 62 W/m 0,0 km/h (0 Bft)
11.10.2013 10:00 7,1 C 6,7 C 96 % 1014,7 hPa 0,0 l/m 0 min 0 min 0,0 UV-I 58 W/m 0,0 km/h (0 Bft)
11.10.2013 10:02 7,1 C 6,7 C 96 % 1014,7 hPa 0,0 l/m 0 min 0 min 0,0 UV-I 58 W/m 0,0 km/h (0 Bft)
11.10.2013 10:06 7,2 C 6,7 C 95 % 1014,7 hPa 0,0 l/m 0 min 0 min 0,0 UV-I 65 W/m 0,0 km/h (0 Bft)
11.10.2013 10:08 7,2 C 6,7 C 95 % 1014,7 hPa 0,0 l/m 0 min 0 min 0,0 UV-I 62 W/m 0,0 km/h (0 Bft)
11.10.2013 10:10 7,1 C 6,7 C 95 % 1014,6 hPa 0,0 l/m 0 min 0 min 0,0 UV-I 62 W/m 0,0 km/h (0 Bft)
11.10.2013 10:12 7,2 C 6,7 C 95 % 1014,6 hPa 0,0 l/m 0 min 0 min 0,0 UV-I 67 W/m 0,0 km/h (0 Bft)
11.10.2013 10:14 7,2 C 6,7 C 95 % 1014,6 hPa 0,0 l/m 0 min 0 min 0,0 UV-I 76 W/m 0,0 km/h (0 Bft)
11.10.2013 10:16 7,2 C 6,7 C 95 % 1014,5 hPa 0,0 l/m 0 min 2 min 0,0 UV-I 86 W/m 2,6 km/h (1 Bft)
11.10.2013 10:18 7,2 C 6,7 C 95 % 1014,6 hPa 0,0 l/m 0 min 2 min 0,0 UV-I 93 W/m 2,6 km/h (1 Bft)
11.10.2013 10:20 7,3 C 6,7 C 95 % 1014,6 hPa 0,0 l/m 0 min 2 min 0,0 UV-I 90 W/m 2,6 km/h (1 Bft)
11.10.2013 10:22 7,3 C 6,7 C 95 % 1014,6 hPa 0,0 l/m 0 min 2 min 0,0 UV-I 76 W/m 0,0 km/h (0 Bft)
11.10.2013 10:24 7,3 C 6,7 C 95 % 1014,6 hPa 0,0 l/m 0 min 2 min 0,0 UV-I 70 W/m 7,7 km/h (2 Bft)
11.10.2013 10:26 7,3 C 6,7 C 95 % 1014,6 hPa 0,0 l/m 0 min 2 min 0,0 UV-I 74 W/m 2,6 km/h (1 Bft)
11.10.2013 10:28 7,4 C 6,7 C 95 % 1014,5 hPa 0,0 l/m 0 min 2 min 0,0 UV-I 81 W/m 2,6 km/h (1 Bft)
11.10.2013 10:30 7,4 C 6,7 C 95 % 1014,5 hPa 0,0 l/m 0 min 2 min 0,0 UV-I 90 W/m 5,1 km/h (1 Bft)
11.10.2013 10:32 7,4 C 6,7 C 95 % 1014,5 hPa 0,0 l/m 0 min 2 min 0,0 UV-I 88 W/m 2,6 km/h (1 Bft)
11.10.2013 10:34 7,4 C 6,7 C 95 % 1014,5 hPa 0,0 l/m 0 min 2 min 0,0 UV-I 83 W/m 0,0 km/h (0 Bft)
11.10.2013 10:36 7,4 C 6,7 C 95 % 1014,6 hPa 0,0 l/m 0 min 2 min 0,0 UV-I 74 W/m 2,6 km/h (1 Bft)
11.10.2013 10:38 7,4 C 6,7 C 95 % 1014,6 hPa 0,0 l/m 0 min 0 min 0,0 UV-I 69 W/m 5,1 km/h (1 Bft)
11.10.2013 10:40 7,4 C 6,7 C 95 % 1014,6 hPa 0,0 l/m 0 min 0 min 0,0 UV-I 62 W/m 0,0 km/h (0 Bft)
11.10.2013 10:42 7,4 C 6,7 C 95 % 1014,7 hPa 0,0 l/m 0 min 0 min 0,0 UV-I 54 W/m 5,1 km/h (1 Bft)
11.10.2013 10:44 7,4 C 6,7 C 95 % 1014,7 hPa 0,0 l/m 0 min 0 min 0,0 UV-I 58 W/m 2,6 km/h (1 Bft)
11.10.2013 10:46 7,4 C 6,7 C 95 % 1014,7 hPa 0,0 l/m 0 min 2 min 0,0 UV-I 72 W/m 2,6 km/h (1 Bft)
11.10.2013 10:48 7,4 C 6,7 C 95 % 1014,7 hPa 0,0 l/m 0 min 0 min 0,0 UV-I 83 W/m 15,4 km/h (3 Bft)
11.10.2013 10:50 7,4 C 6,7 C 95 % 1014,7 hPa 0,0 l/m 0 min 2 min 0,0 UV-I 79 W/m 2,6 km/h (1 Bft)
11.10.2013 10:52 7,4 C 6,7 C 95 % 1014,7 hPa 0,0 l/m 0 min 2 min 0,0 UV-I 81 W/m 0,0 km/h (0 Bft)
11.10.2013 10:54 7,4 C 6,7 C 95 % 1014,7 hPa 0,0 l/m 0 min 2 min 0,0 UV-I 86 W/m 0,0 km/h (0 Bft)
11.10.2013 10:56 7,5 C 6,7 C 95 % 1014,7 hPa 0,0 l/m 0 min 2 min 0,0 UV-I 91 W/m 2,6 km/h (1 Bft)
11.10.2013 10:58 7,5 C 6,7 C 95 % 1014,7 hPa 0,0 l/m 0 min 2 min 0,0 UV-I 98 W/m 7,7 km/h (2 Bft)
11.10.2013 11:00 7,5 C 6,7 C 95 % 1014,7 hPa 0,0 l/m 0 min 0 min 0,0 UV-I 118 W/m 0,0 km/h (0 Bft)
11.10.2013 11:02 7,6 C 6,7 C 95 % 1014,7 hPa 0,0 l/m 0 min 0 min 0,0 UV-I 120 W/m 0,0 km/h (0 Bft)
11.10.2013 11:06 7,6 C 7,2 C 95 % 1014,7 hPa 0,0 l/m 0 min 0 min 0,0 UV-I 125 W/m 5,1 km/h (1 Bft)
11.10.2013 11:08 7,7 C 7,2 C 95 % 1014,8 hPa 0,0 l/m 0 min 0 min 0,0 UV-I 125 W/m 0,0 km/h (0 Bft)
11.10.2013 11:10 7,7 C 7,2 C 95 % 1014,8 hPa 0,0 l/m 0 min 0 min 0,0 UV-I 111 W/m 0,0 km/h (0 Bft)
11.10.2013 11:12 7,8 C 7,2 C 95 % 1014,7 hPa 0,0 l/m 0 min 0 min 0,0 UV-I 104 W/m 2,6 km/h (1 Bft)
11.10.2013 11:14 7,8 C 7,2 C 95 % 1014,7 hPa 0,0 l/m 0 min 0 min 0,0 UV-I 105 W/m 0,0 km/h (0 Bft)
11.10.2013 11:16 7,8 C 7,2 C 95 % 1014,8 hPa 0,0 l/m 0 min 2 min 0,0 UV-I 107 W/m 0,0 km/h (0 Bft)
11.10.2013 11:18 7,8 C 7,2 C 95 % 1014,8 hPa 0,0 l/m 0 min 0 min 0,0 UV-I 104 W/m 0,0 km/h (0 Bft)
11.10.2013 11:20 7,8 C 7,2 C 95 % 1014,8 hPa 0,0 l/m 0 min 0 min 0,0 UV-I 102 W/m 0,0 km/h (0 Bft)
11.10.2013 11:22 7,9 C 7,2 C 95 % 1014,8 hPa 0,0 l/m 0 min 0 min 0,0 UV-I 100 W/m 0,0 km/h (0 Bft)
11.10.2013 11:24 7,9 C 7,2 C 95 % 1014,7 hPa 0,0 l/m 0 min 0 min 0,0 UV-I 97 W/m 2,6 km/h (1 Bft)
11.10.2013 11:26 7,9 C 7,2 C 95 % 1014,7 hPa 0,0 l/m 0 min 0 min 0,0 UV-I 98 W/m 0,0 km/h (0 Bft)
11.10.2013 11:28 7,9 C 7,2 C 95 % 1014,7 hPa 0,0 l/m 0 min 0 min 0,0 UV-I 93 W/m 0,0 km/h (0 Bft)
11.10.2013 11:30 7,9 C 7,2 C 95 % 1014,8 hPa 0,0 l/m 0 min 0 min 0,0 UV-I 79 W/m 0,0 km/h (0 Bft)
11.10.2013 11:32 7,9 C 7,2 C 95 % 1014,7 hPa 0,0 l/m 0 min 2 min 0,0 UV-I 83 W/m 0,0 km/h (0 Bft)
11.10.2013 11:34 7,9 C 7,2 C 95 % 1014,8 hPa 0,0 l/m 0 min 2 min 0,0 UV-I 86 W/m 2,6 km/h (1 Bft)
11.10.2013 11:36 7,9 C 7,2 C 95 % 1014,8 hPa 0,0 l/m 0 min 2 min 0,0 UV-I 90 W/m 0,0 km/h (0 Bft)
11.10.2013 11:38 7,9 C 7,2 C 94 % 1014,7 hPa 0,0 l/m 0 min 2 min 0,0 UV-I 95 W/m 0,0 km/h (0 Bft)
11.10.2013 11:40 8,0 C 7,2 C 94 % 1014,8 hPa 0,0 l/m 0 min 2 min 0,0 UV-I 88 W/m 0,0 km/h (0 Bft)
11.10.2013 11:42 8,0 C 7,2 C 94 % 1014,8 hPa 0,0 l/m 0 min 2 min 0,0 UV-I 88 W/m 0,0 km/h (0 Bft)
11.10.2013 11:44 8,0 C 7,2 C 94 % 1014,8 hPa 0,0 l/m 0 min 2 min 0,0 UV-I 95 W/m 0,0 km/h (0 Bft)
11.10.2013 11:46 8,1 C 7,2 C 94 % 1014,7 hPa 0,0 l/m 0 min 2 min 0,0 UV-I 105 W/m 0,0 km/h (0 Bft)
11.10.2013 11:48 8,2 C 7,2 C 95 % 1014,7 hPa 0,0 l/m 0 min 2 min 0,0 UV-I 105 W/m 0,0 km/h (0 Bft)
11.10.2013 11:50 8,2 C 7,2 C 95 % 1014,7 hPa 0,0 l/m 0 min 2 min 0,0 UV-I 113 W/m 0,0 km/h (0 Bft)
11.10.2013 11:52 8,1 C 7,2 C 95 % 1014,7 hPa 0,0 l/m 0 min 2 min 0,0 UV-I 123 W/m 0,0 km/h (0 Bft)
11.10.2013 11:54 8,0 C 7,2 C 95 % 1014,7 hPa 0,0 l/m 0 min 2 min 0,0 UV-I 114 W/m 0,0 km/h (0 Bft)
11.10.2013 11:56 8,0 C 7,2 C 94 % 1014,8 hPa 0,0 l/m 0 min 0 min 0,0 UV-I 111 W/m 0,0 km/h (0 Bft)
11.10.2013 11:58 8,1 C 7,2 C 94 % 1014,8 hPa 0,0 l/m 0 min 2 min 0,0 UV-I 111 W/m 0,0 km/h (0 Bft)
11.10.2013 12:00 8,1 C 7,2 C 94 % 1014,7 hPa 0,0 l/m 0 min 2 min 0,0 UV-I 113 W/m 0,0 km/h (0 Bft)
11.10.2013 12:02 8,1 C 7,2 C 94 % 1014,7 hPa 0,0 l/m 0 min 0 min 0,0 UV-I 109 W/m 0,0 km/h (0 Bft)
11.10.2013 12:06 8,1 C 7,2 C 94 % 1014,7 hPa 0,0 l/m 0 min 0 min 0,0 UV-I 109 W/m 0,0 km/h (0 Bft)
11.10.2013 12:08 8,1 C 7,2 C 95 % 1014,7 hPa 0,0 l/m 0 min 0 min 0,0 UV-I 111 W/m 0,0 km/h (0 Bft)
11.10.2013 12:10 8,2 C 7,2 C 95 % 1014,7 hPa 0,0 l/m 0 min 0 min 0,0 UV-I 114 W/m 0,0 km/h (0 Bft)
11.10.2013 12:12 8,2 C 7,8 C 95 % 1014,6 hPa 0,0 l/m 0 min 0 min 0,0 UV-I 111 W/m 0,0 km/h (0 Bft)
11.10.2013 12:14 8,2 C 7,2 C 95 % 1014,6 hPa 0,0 l/m 0 min 0 min 0,0 UV-I 113 W/m 0,0 km/h (0 Bft)
11.10.2013 12:16 8,2 C 7,2 C 95 % 1014,6 hPa 0,0 l/m 0 min 0 min 0,0 UV-I 113 W/m 0,0 km/h (0 Bft)
11.10.2013 12:18 8,2 C 7,2 C 95 % 1014,6 hPa 0,0 l/m 0 min 2 min 0,0 UV-I 116 W/m 0,0 km/h (0 Bft)
11.10.2013 12:20 8,3 C 7,8 C 95 % 1014,7 hPa 0,0 l/m 0 min 0 min 0,0 UV-I 107 W/m 0,0 km/h (0 Bft)
11.10.2013 12:22 8,3 C 7,8 C 95 % 1014,8 hPa 0,0 l/m 0 min 2 min 0,0 UV-I 104 W/m 0,0 km/h (0 Bft)
11.10.2013 12:24 8,4 C 7,8 C 95 % 1014,8 hPa 0,0 l/m 0 min 2 min 0,0 UV-I 105 W/m 0,0 km/h (0 Bft)
11.10.2013 12:26 8,6 C 7,8 C 95 % 1014,7 hPa 0,0 l/m 0 min 2 min 0,0 UV-I 114 W/m 0,0 km/h (0 Bft)
11.10.2013 12:28 8,5 C 7,8 C 95 % 1014,8 hPa 0,0 l/m 0 min 2 min 0,0 UV-I 132 W/m 2,6 km/h (1 Bft)
11.10.2013 12:30 8,4 C 7,8 C 95 % 1015,0 hPa 0,0 l/m 0 min 2 min 0,0 UV-I 114 W/m 0,0 km/h (0 Bft)
11.10.2013 12:32 8,5 C 7,8 C 95 % 1015,0 hPa 0,0 l/m 0 min 2 min 0,0 UV-I 102 W/m 2,6 km/h (1 Bft)
11.10.2013 12:34 8,5 C 7,8 C 95 % 1015,0 hPa 0,0 l/m 0 min 2 min 0,0 UV-I 104 W/m 0,0 km/h (0 Bft)
11.10.2013 12:36 8,5 C 7,8 C 95 % 1015,0 hPa 0,0 l/m 0 min 2 min 0,0 UV-I 113 W/m 0,0 km/h (0 Bft)
11.10.2013 12:38 8,6 C 7,8 C 94 % 1015,1 hPa 0,0 l/m 0 min 2 min 0,0 UV-I 107 W/m 0,0 km/h (0 Bft)
11.10.2013 12:40 8,7 C 7,8 C 95 % 1015,1 hPa 0,0 l/m 0 min 2 min 0,0 UV-I 83 W/m 0,0 km/h (0 Bft)
11.10.2013 12:42 8,7 C 7,8 C 94 % 1015,1 hPa 0,2 l/m 0 min 2 min 0,0 UV-I 83 W/m 0,0 km/h (0 Bft)
11.10.2013 12:44 8,7 C 7,8 C 94 % 1015,1 hPa 0,0 l/m 0 min 2 min 0,0 UV-I 77 W/m 0,0 km/h (0 Bft)
11.10.2013 12:46 8,6 C 7,8 C 94 % 1015,1 hPa 0,0 l/m 0 min 2 min 0,0 UV-I 81 W/m 2,6 km/h (1 Bft)
11.10.2013 12:48 8,6 C 7,8 C 94 % 1015,1 hPa 0,0 l/m 0 min 2 min 0,0 UV-I 91 W/m 0,0 km/h (0 Bft)
11.10.2013 12:50 8,7 C 7,8 C 94 % 1015,2 hPa 0,0 l/m 0 min 2 min 0,0 UV-I 98 W/m 0,0 km/h (0 Bft)
11.10.2013 12:52 8,7 C 7,8 C 94 % 1015,3 hPa 0,0 l/m 0 min 2 min 0,0 UV-I 79 W/m 0,0 km/h (0 Bft)
11.10.2013 12:54 8,7 C 7,8 C 94 % 1015,3 hPa 0,0 l/m 0 min 2 min 0,0 UV-I 62 W/m 0,0 km/h (0 Bft)
11.10.2013 12:56 8,7 C 7,8 C 94 % 1015,3 hPa 0,0 l/m 0 min 2 min 0,0 UV-I 62 W/m 0,0 km/h (0 Bft)
11.10.2013 12:58 8,6 C 7,2 C 94 % 1015,2 hPa 0,0 l/m 0 min 2 min 0,0 UV-I 77 W/m 0,0 km/h (0 Bft)
11.10.2013 13:00 8,5 C 7,2 C 94 % 1015,2 hPa 0,0 l/m 0 min 2 min 0,0 UV-I 88 W/m 0,0 km/h (0 Bft)
11.10.2013 13:02 8,4 C 7,2 C 94 % 1015,3 hPa 0,0 l/m 0 min 2 min 0,0 UV-I 76 W/m 0,0 km/h (0 Bft)
11.10.2013 13:06 8,5 C 7,2 C 94 % 1015,3 hPa 0,0 l/m 0 min 2 min 0,0 UV-I 54 W/m 0,0 km/h (0 Bft)
11.10.2013 13:08 8,5 C 7,2 C 94 % 1015,4 hPa 0,0 l/m 0 min 2 min 0,0 UV-I 47 W/m 0,0 km/h (0 Bft)
11.10.2013 13:10 8,5 C 7,2 C 94 % 1015,4 hPa 0,0 l/m 0 min 2 min 0,0 UV-I 46 W/m 0,0 km/h (0 Bft)
11.10.2013 13:12 8,4 C 7,2 C 94 % 1015,4 hPa 0,0 l/m 0 min 2 min 0,0 UV-I 47 W/m 0,0 km/h (0 Bft)
11.10.2013 13:14 8,4 C 7,2 C 94 % 1015,5 hPa 0,0 l/m 0 min 2 min 0,0 UV-I 49 W/m 2,6 km/h (1 Bft)
11.10.2013 13:16 8,4 C 7,2 C 94 % 1015,4 hPa 0,0 l/m 0 min 2 min 0,0 UV-I 49 W/m 0,0 km/h (0 Bft)
11.10.2013 13:18 8,4 C 7,2 C 94 % 1015,4 hPa 0,0 l/m 0 min 2 min 0,0 UV-I 46 W/m 0,0 km/h (0 Bft)
11.10.2013 13:20 8,4 C 7,2 C 94 % 1015,4 hPa 0,2 l/m 0 min 2 min 0,0 UV-I 53 W/m 0,0 km/h (0 Bft)
11.10.2013 13:22 8,4 C 7,2 C 94 % 1015,4 hPa 0,0 l/m 0 min 2 min 0,0 UV-I 56 W/m 0,0 km/h (0 Bft)
11.10.2013 13:24 8,3 C 7,2 C 95 % 1015,4 hPa 0,0 l/m 0 min 2 min 0,0 UV-I 62 W/m 0,0 km/h (0 Bft)
11.10.2013 13:26 8,3 C 7,2 C 95 % 1015,3 hPa 0,0 l/m 0 min 2 min 0,0 UV-I 58 W/m 0,0 km/h (0 Bft)
11.10.2013 13:28 8,3 C 7,2 C 95 % 1015,3 hPa 0,0 l/m 0 min 2 min 0,0 UV-I 58 W/m 0,0 km/h (0 Bft)
11.10.2013 13:30 8,3 C 7,2 C 95 % 1015,3 hPa 0,2 l/m 0 min 2 min 0,0 UV-I 58 W/m 0,0 km/h (0 Bft)
11.10.2013 13:32 8,3 C 7,2 C 95 % 1015,4 hPa 0,0 l/m 0 min 2 min 0,0 UV-I 53 W/m 0,0 km/h (0 Bft)
11.10.2013 13:34 8,3 C 7,2 C 95 % 1015,5 hPa 0,0 l/m 0 min 2 min 0,0 UV-I 47 W/m 0,0 km/h (0 Bft)
11.10.2013 13:36 8,3 C 7,2 C 95 % 1015,4 hPa 0,0 l/m 0 min 2 min 0,0 UV-I 42 W/m 0,0 km/h (0 Bft)
11.10.2013 13:38 8,3 C 7,2 C 95 % 1015,5 hPa 0,0 l/m 0 min 2 min 0,0 UV-I 35 W/m 0,0 km/h (0 Bft)
11.10.2013 13:40 8,3 C 7,2 C 95 % 1015,5 hPa 0,0 l/m 0 min 2 min 0,0 UV-I 37 W/m 2,6 km/h (1 Bft)
11.10.2013 13:42 8,3 C 7,2 C 95 % 1015,5 hPa 0,0 l/m 0 min 2 min 0,0 UV-I 46 W/m 0,0 km/h (0 Bft)
11.10.2013 13:44 8,3 C 7,2 C 95 % 1015,5 hPa 0,2 l/m 0 min 2 min 0,0 UV-I 51 W/m 0,0 km/h (0 Bft)
11.10.2013 13:46 8,3 C 7,2 C 95 % 1015,5 hPa 0,0 l/m 0 min 2 min 0,0 UV-I 53 W/m 0,0 km/h (0 Bft)
11.10.2013 13:48 8,3 C 7,2 C 95 % 1015,5 hPa 0,0 l/m 0 min 2 min 0,0 UV-I 47 W/m 0,0 km/h (0 Bft)
11.10.2013 13:50 8,2 C 7,2 C 95 % 1015,5 hPa 0,0 l/m 0 min 2 min 0,0 UV-I 49 W/m 0,0 km/h (0 Bft)
11.10.2013 13:52 8,2 C 7,2 C 95 % 1015,5 hPa 0,0 l/m 0 min 2 min 0,0 UV-I 60 W/m 0,0 km/h (0 Bft)
11.10.2013 13:54 8,2 C 7,2 C 95 % 1015,5 hPa 0,2 l/m 0 min 2 min 0,0 UV-I 65 W/m 0,0 km/h (0 Bft)
11.10.2013 13:56 8,3 C 7,2 C 96 % 1015,5 hPa 0,0 l/m 0 min 2 min 0,0 UV-I 76 W/m 0,0 km/h (0 Bft)
11.10.2013 13:58 8,2 C 7,2 C 96 % 1015,5 hPa 0,0 l/m 0 min 2 min 0,0 UV-I 79 W/m 0,0 km/h (0 Bft)
11.10.2013 14:00 8,2 C 7,2 C 96 % 1015,4 hPa 0,0 l/m 0 min 2 min 0,0 UV-I 84 W/m 0,0 km/h (0 Bft)
11.10.2013 14:02 8,2 C 7,2 C 96 % 1015,4 hPa 0,2 l/m 0 min 2 min 0,0 UV-I 86 W/m 0,0 km/h (0 Bft)
11.10.2013 14:06 8,3 C 7,8 C 96 % 1015,3 hPa 0,0 l/m 0 min 2 min 0,0 UV-I 90 W/m 0,0 km/h (0 Bft)
11.10.2013 14:08 8,3 C 7,8 C 96 % 1015,2 hPa 0,2 l/m 0 min 2 min 0,0 UV-I 100 W/m 0,0 km/h (0 Bft)
11.10.2013 14:10 8,3 C 7,8 C 96 % 1015,2 hPa 0,0 l/m 0 min 2 min 0,0 UV-I 109 W/m 0,0 km/h (0 Bft)
11.10.2013 14:12 8,4 C 7,8 C 96 % 1015,1 hPa 0,0 l/m 0 min 2 min 0,0 UV-I 118 W/m 0,0 km/h (0 Bft)
11.10.2013 14:14 8,5 C 7,8 C 96 % 1015,1 hPa 0,2 l/m 0 min 2 min 0,0 UV-I 134 W/m 0,0 km/h (0 Bft)
11.10.2013 14:16 8,5 C 7,8 C 96 % 1015,1 hPa 0,0 l/m 0 min 2 min 0,0 UV-I 144 W/m 0,0 km/h (0 Bft)
11.10.2013 14:18 8,6 C 8,3 C 96 % 1015,1 hPa 0,0 l/m 0 min 2 min 0,0 UV-I 151 W/m 0,0 km/h (0 Bft)
11.10.2013 14:20 8,6 C 8,3 C 97 % 1015,2 hPa 0,0 l/m 0 min 2 min 0,0 UV-I 146 W/m 0,0 km/h (0 Bft)
11.10.2013 14:22 8,7 C 8,3 C 96 % 1015,2 hPa 0,0 l/m 0 min 2 min 0,0 UV-I 148 W/m 0,0 km/h (0 Bft)
11.10.2013 14:24 8,8 C 8,3 C 97 % 1015,2 hPa 0,0 l/m 0 min 2 min 0,0 UV-I 141 W/m 2,6 km/h (1 Bft)
11.10.2013 14:26 8,7 C 8,3 C 97 % 1015,1 hPa 0,0 l/m 0 min 2 min 0,0 UV-I 137 W/m 0,0 km/h (0 Bft)
11.10.2013 14:28 8,7 C 8,3 C 97 % 1015,0 hPa 0,0 l/m 0 min 2 min 0,0 UV-I 144 W/m 0,0 km/h (0 Bft)
11.10.2013 14:30 8,8 C 8,3 C 97 % 1015,0 hPa 0,0 l/m 0 min 2 min 0,0 UV-I 149 W/m 0,0 km/h (0 Bft)
11.10.2013 14:32 8,8 C 8,3 C 97 % 1015,0 hPa 0,0 l/m 0 min 2 min 0,0 UV-I 146 W/m 0,0 km/h (0 Bft)
11.10.2013 14:34 8,8 C 8,3 C 97 % 1015,1 hPa 0,0 l/m 0 min 0 min 0,0 UV-I 134 W/m 0,0 km/h (0 Bft)
11.10.2013 14:36 8,7 C 8,3 C 97 % 1015,1 hPa 0,0 l/m 0 min 0 min 0,0 UV-I 111 W/m 0,0 km/h (0 Bft)
11.10.2013 14:38 8,7 C 8,3 C 97 % 1015,1 hPa 0,0 l/m 0 min 0 min 0,0 UV-I 105 W/m 0,0 km/h (0 Bft)
11.10.2013 14:40 8,7 C 8,3 C 97 % 1014,9 hPa 0,0 l/m 0 min 0 min 0,0 UV-I 105 W/m 7,7 km/h (2 Bft)
11.10.2013 14:42 8,6 C 8,3 C 97 % 1014,9 hPa 0,0 l/m 0 min 0 min 0,0 UV-I 86 W/m 0,0 km/h (0 Bft)
11.10.2013 14:44 8,6 C 7,8 C 97 % 1015,1 hPa 0,0 l/m 0 min 0 min 0,0 UV-I 69 W/m 0,0 km/h (0 Bft)
11.10.2013 14:46 8,5 C 7,8 C 97 % 1015,1 hPa 0,0 l/m 0 min 0 min 0,0 UV-I 60 W/m 0,0 km/h (0 Bft)
11.10.2013 14:48 8,5 C 7,8 C 97 % 1015,1 hPa 0,0 l/m 0 min 0 min 0,0 UV-I 46 W/m 0,0 km/h (0 Bft)
11.10.2013 14:50 8,4 C 7,8 C 97 % 1015,1 hPa 0,0 l/m 0 min 0 min 0,0 UV-I 42 W/m 0,0 km/h (0 Bft)
11.10.2013 14:52 8,4 C 7,2 C 96 % 1015,1 hPa 0,0 l/m 0 min 0 min 0,0 UV-I 44 W/m 0,0 km/h (0 Bft)
11.10.2013 14:54 8,3 C 7,2 C 97 % 1015,0 hPa 0,0 l/m 0 min 0 min 0,0 UV-I 58 W/m 0,0 km/h (0 Bft)
11.10.2013 14:56 8,3 C 7,2 C 96 % 1014,9 hPa 0,0 l/m 0 min 0 min 0,0 UV-I 70 W/m 0,0 km/h (0 Bft)
11.10.2013 14:58 8,3 C 7,2 C 96 % 1014,9 hPa 0,0 l/m 0 min 0 min 0,0 UV-I 76 W/m 0,0 km/h (0 Bft)
11.10.2013 15:00 8,2 C 7,2 C 96 % 1015,1 hPa 0,0 l/m 0 min 0 min 0,0 UV-I 86 W/m 0,0 km/h (0 Bft)
11.10.2013 15:02 8,2 C 7,8 C 96 % 1015,0 hPa 0,0 l/m 0 min 2 min 0,0 UV-I 93 W/m 0,0 km/h (0 Bft)
11.10.2013 15:06 8,2 C 7,8 C 96 % 1015,0 hPa 0,0 l/m 0 min 0 min 0,0 UV-I 100 W/m 0,0 km/h (0 Bft)
11.10.2013 15:08 8,3 C 7,8 C 96 % 1015,0 hPa 0,0 l/m 0 min 0 min 0,0 UV-I 109 W/m 0,0 km/h (0 Bft)
11.10.2013 15:10 8,3 C 7,8 C 96 % 1014,9 hPa 0,0 l/m 0 min 0 min 0,0 UV-I 123 W/m 0,0 km/h (0 Bft)
11.10.2013 15:12 8,4 C 7,8 C 96 % 1014,8 hPa 0,0 l/m 0 min 2 min 0,0 UV-I 120 W/m 0,0 km/h (0 Bft)
11.10.2013 15:14 8,5 C 7,8 C 96 % 1014,6 hPa 0,0 l/m 0 min 2 min 0,0 UV-I 113 W/m 0,0 km/h (0 Bft)
11.10.2013 15:16 8,5 C 7,8 C 96 % 1014,6 hPa 0,0 l/m 0 min 2 min 0,0 UV-I 111 W/m 0,0 km/h (0 Bft)
11.10.2013 15:18 8,4 C 7,8 C 96 % 1014,6 hPa 0,0 l/m 0 min 2 min 0,0 UV-I 111 W/m 0,0 km/h (0 Bft)
11.10.2013 15:20 8,4 C 7,8 C 96 % 1014,5 hPa 0,0 l/m 0 min 2 min 0,0 UV-I 109 W/m 0,0 km/h (0 Bft)
11.10.2013 15:22 8,5 C 7,8 C 96 % 1014,5 hPa 0,0 l/m 0 min 2 min 0,0 UV-I 97 W/m 0,0 km/h (0 Bft)
11.10.2013 15:24 8,4 C 7,8 C 96 % 1014,5 hPa 0,0 l/m 0 min 0 min 0,0 UV-I 77 W/m 0,0 km/h (0 Bft)
11.10.2013 15:26 8,4 C 7,8 C 96 % 1014,5 hPa 0,0 l/m 0 min 2 min 0,0 UV-I 74 W/m 0,0 km/h (0 Bft)
11.10.2013 15:28 8,5 C 7,8 C 96 % 1014,6 hPa 0,0 l/m 0 min 2 min 0,0 UV-I 69 W/m 0,0 km/h (0 Bft)
11.10.2013 15:30 8,4 C 7,8 C 96 % 1014,9 hPa 0,0 l/m 0 min 0 min 0,0 UV-I 62 W/m 0,0 km/h (0 Bft)
11.10.2013 15:32 8,5 C 7,8 C 96 % 1014,8 hPa 0,0 l/m 0 min 0 min 0,0 UV-I 54 W/m 0,0 km/h (0 Bft)
11.10.2013 15:34 8,5 C 7,2 C 96 % 1014,9 hPa 0,0 l/m 0 min 0 min 0,0 UV-I 49 W/m 0,0 km/h (0 Bft)
11.10.2013 15:36 8,5 C 7,8 C 96 % 1014,8 hPa 0,0 l/m 0 min 0 min 0,0 UV-I 54 W/m 0,0 km/h (0 Bft)
11.10.2013 15:38 8,4 C 7,2 C 96 % 1014,9 hPa 0,0 l/m 0 min 0 min 0,0 UV-I 62 W/m 0,0 km/h (0 Bft)
11.10.2013 15:40 8,4 C 7,2 C 96 % 1014,7 hPa 0,0 l/m 0 min 0 min 0,0 UV-I 72 W/m 0,0 km/h (0 Bft)
11.10.2013 15:42 8,4 C 7,8 C 96 % 1014,7 hPa 0,0 l/m 0 min 0 min 0,0 UV-I 76 W/m 0,0 km/h (0 Bft)
11.10.2013 15:44 8,4 C 7,8 C 96 % 1014,7 hPa 0,0 l/m 0 min 0 min 0,0 UV-I 81 W/m 0,0 km/h (0 Bft)
11.10.2013 15:46 8,4 C 7,8 C 96 % 1014,7 hPa 0,0 l/m 0 min 2 min 0,0 UV-I 84 W/m 0,0 km/h (0 Bft)
11.10.2013 15:48 8,4 C 7,8 C 95 % 1014,6 hPa 0,0 l/m 0 min 2 min 0,0 UV-I 98 W/m 0,0 km/h (0 Bft)
11.10.2013 15:50 8,4 C 7,8 C 95 % 1014,5 hPa 0,0 l/m 0 min 2 min 0,0 UV-I 105 W/m 0,0 km/h (0 Bft)
11.10.2013 15:52 8,5 C 7,8 C 95 % 1014,5 hPa 0,0 l/m 0 min 2 min 0,0 UV-I 111 W/m 0,0 km/h (0 Bft)
11.10.2013 15:54 8,4 C 7,8 C 95 % 1014,6 hPa 0,0 l/m 0 min 2 min 0,0 UV-I 105 W/m 0,0 km/h (0 Bft)
11.10.2013 15:56 8,3 C 7,2 C 95 % 1014,7 hPa 0,0 l/m 0 min 2 min 0,0 UV-I 95 W/m 0,0 km/h (0 Bft)
11.10.2013 15:58 8,3 C 7,2 C 95 % 1014,7 hPa 0,2 l/m 0 min 2 min 0,0 UV-I 91 W/m 0,0 km/h (0 Bft)
11.10.2013 16:00 8,3 C 7,2 C 95 % 1014,6 hPa 0,0 l/m 0 min 2 min 0,0 UV-I 98 W/m 0,0 km/h (0 Bft)
11.10.2013 16:02 8,3 C 7,8 C 95 % 1014,6 hPa 0,0 l/m 0 min 2 min 0,0 UV-I 113 W/m 0,0 km/h (0 Bft)
11.10.2013 16:06 8,4 C 7,8 C 94 % 1014,5 hPa 0,0 l/m 0 min 2 min 0,0 UV-I 120 W/m 0,0 km/h (0 Bft)
11.10.2013 16:08 8,4 C 7,8 C 94 % 1014,6 hPa 0,0 l/m 0 min 2 min 0,0 UV-I 86 W/m 0,0 km/h (0 Bft)
11.10.2013 16:10 8,4 C 7,8 C 94 % 1014,7 hPa 0,0 l/m 0 min 2 min 0,0 UV-I 53 W/m 0,0 km/h (0 Bft)
11.10.2013 16:12 8,4 C 7,2 C 94 % 1014,7 hPa 0,0 l/m 0 min 2 min 0,0 UV-I 42 W/m 0,0 km/h (0 Bft)
11.10.2013 16:14 8,4 C 7,2 C 94 % 1014,7 hPa 0,0 l/m 0 min 2 min 0,0 UV-I 40 W/m 0,0 km/h (0 Bft)
11.10.2013 16:16 8,4 C 7,2 C 94 % 1014,8 hPa 0,0 l/m 0 min 2 min 0,0 UV-I 37 W/m 0,0 km/h (0 Bft)
11.10.2013 16:18 8,4 C 7,2 C 94 % 1014,8 hPa 0,0 l/m 0 min 2 min 0,0 UV-I 42 W/m 0,0 km/h (0 Bft)
11.10.2013 16:20 8,3 C 7,2 C 94 % 1014,8 hPa 0,0 l/m 0 min 2 min 0,0 UV-I 49 W/m 0,0 km/h (0 Bft)
11.10.2013 16:22 8,3 C 7,2 C 94 % 1014,8 hPa 0,0 l/m 0 min 2 min 0,0 UV-I 37 W/m 0,0 km/h (0 Bft)
11.10.2013 16:24 8,2 C 7,2 C 94 % 1014,9 hPa 0,0 l/m 0 min 2 min 0,0 UV-I 32 W/m 0,0 km/h (0 Bft)
11.10.2013 16:26 8,3 C 7,2 C 94 % 1015,1 hPa 0,0 l/m 0 min 2 min 0,0 UV-I 28 W/m 0,0 km/h (0 Bft)
11.10.2013 16:28 8,3 C 7,2 C 94 % 1015,2 hPa 0,0 l/m 0 min 2 min 0,0 UV-I 25 W/m 0,0 km/h (0 Bft)
11.10.2013 16:30 8,3 C 7,2 C 94 % 1015,2 hPa 0,0 l/m 0 min 2 min 0,0 UV-I 26 W/m 0,0 km/h (0 Bft)
11.10.2013 16:32 8,3 C 7,2 C 94 % 1015,2 hPa 0,0 l/m 0 min 2 min 0,0 UV-I 26 W/m 0,0 km/h (0 Bft)
11.10.2013 16:34 8,3 C 7,2 C 94 % 1015,1 hPa 0,0 l/m 0 min 2 min 0,0 UV-I 26 W/m 0,0 km/h (0 Bft)
11.10.2013 16:36 8,3 C 7,2 C 94 % 1015,1 hPa 0,0 l/m 0 min 2 min 0,0 UV-I 25 W/m 0,0 km/h (0 Bft)
11.10.2013 16:38 8,3 C 7,2 C 94 % 1015,2 hPa 0,2 l/m 0 min 2 min 0,0 UV-I 26 W/m 0,0 km/h (0 Bft)
11.10.2013 16:40 8,3 C 7,2 C 94 % 1015,2 hPa 0,0 l/m 0 min 2 min 0,0 UV-I 25 W/m 0,0 km/h (0 Bft)
11.10.2013 16:42 8,2 C 7,2 C 95 % 1015,3 hPa 0,0 l/m 0 min 2 min 0,0 UV-I 25 W/m 0,0 km/h (0 Bft)
11.10.2013 16:44 8,2 C 7,2 C 95 % 1015,3 hPa 0,0 l/m 0 min 2 min 0,0 UV-I 25 W/m 0,0 km/h (0 Bft)
11.10.2013 16:46 8,2 C 7,2 C 95 % 1015,3 hPa 0,0 l/m 0 min 2 min 0,0 UV-I 25 W/m 0,0 km/h (0 Bft)
11.10.2013 16:48 8,1 C 7,2 C 95 % 1015,3 hPa 0,2 l/m 0 min 2 min 0,0 UV-I 25 W/m 0,0 km/h (0 Bft)
11.10.2013 16:50 8,1 C 7,2 C 95 % 1015,4 hPa 0,0 l/m 0 min 2 min 0,0 UV-I 23 W/m 0,0 km/h (0 Bft)
11.10.2013 16:52 8,1 C 7,2 C 95 % 1015,3 hPa 0,0 l/m 0 min 2 min 0,0 UV-I 25 W/m 0,0 km/h (0 Bft)
11.10.2013 16:54 8,1 C 7,2 C 95 % 1015,3 hPa 0,0 l/m 0 min 2 min 0,0 UV-I 30 W/m 0,0 km/h (0 Bft)
11.10.2013 16:56 8,1 C 7,2 C 95 % 1015,3 hPa 0,0 l/m 0 min 2 min 0,0 UV-I 33 W/m 0,0 km/h (0 Bft)
11.10.2013 16:58 8,2 C 7,2 C 95 % 1015,3 hPa 0,0 l/m 0 min 2 min 0,0 UV-I 32 W/m 0,0 km/h (0 Bft)
11.10.2013 17:00 8,1 C 7,2 C 95 % 1015,3 hPa 0,0 l/m 0 min 2 min 0,0 UV-I 30 W/m 0,0 km/h (0 Bft)
11.10.2013 17:02 8,1 C 7,2 C 96 % 1015,3 hPa 0,2 l/m 0 min 2 min 0,0 UV-I 26 W/m 0,0 km/h (0 Bft)
11.10.2013 17:06 8,0 C 7,2 C 96 % 1015,3 hPa 0,0 l/m 0 min 2 min 0,0 UV-I 28 W/m 0,0 km/h (0 Bft)
11.10.2013 17:08 8,0 C 7,2 C 96 % 1015,2 hPa 0,0 l/m 0 min 2 min 0,0 UV-I 28 W/m 0,0 km/h (0 Bft)
11.10.2013 17:10 7,9 C 7,2 C 96 % 1015,2 hPa 0,2 l/m 0 min 2 min 0,0 UV-I 26 W/m 0,0 km/h (0 Bft)
11.10.2013 17:12 7,9 C 7,2 C 96 % 1015,2 hPa 0,0 l/m 0 min 2 min 0,0 UV-I 23 W/m 0,0 km/h (0 Bft)
11.10.2013 17:14 7,9 C 7,2 C 96 % 1015,2 hPa 0,0 l/m 0 min 2 min 0,0 UV-I 23 W/m 0,0 km/h (0 Bft)
11.10.2013 17:16 7,9 C 7,2 C 96 % 1015,2 hPa 0,0 l/m 0 min 2 min 0,0 UV-I 21 W/m 0,0 km/h (0 Bft)
11.10.2013 17:18 7,9 C 7,2 C 96 % 1015,2 hPa 0,2 l/m 0 min 2 min 0,0 UV-I 19 W/m 0,0 km/h (0 Bft)
11.10.2013 17:20 7,9 C 6,7 C 96 % 1015,3 hPa 0,0 l/m 0 min 2 min 0,0 UV-I 18 W/m 0,0 km/h (0 Bft)
11.10.2013 17:22 7,9 C 7,2 C 96 % 1015,3 hPa 0,0 l/m 0 min 2 min 0,0 UV-I 18 W/m 0,0 km/h (0 Bft)
11.10.2013 17:24 7,9 C 7,2 C 96 % 1015,3 hPa 0,0 l/m 0 min 2 min 0,0 UV-I 16 W/m 0,0 km/h (0 Bft)
11.10.2013 17:26 7,8 C 6,7 C 96 % 1015,3 hPa 0,0 l/m 0 min 2 min 0,0 UV-I 16 W/m 0,0 km/h (0 Bft)
11.10.2013 17:28 7,8 C 6,7 C 96 % 1015,4 hPa 0,0 l/m 0 min 2 min 0,0 UV-I 16 W/m 0,0 km/h (0 Bft)
11.10.2013 17:30 7,8 C 6,7 C 96 % 1015,4 hPa 0,0 l/m 0 min 2 min 0,0 UV-I 14 W/m 0,0 km/h (0 Bft)
11.10.2013 17:32 7,7 C 6,7 C 96 % 1015,5 hPa 0,0 l/m 0 min 2 min 0,0 UV-I 14 W/m 0,0 km/h (0 Bft)
11.10.2013 17:34 7,8 C 6,7 C 96 % 1015,6 hPa 0,2 l/m 0 min 2 min 0,0 UV-I 14 W/m 0,0 km/h (0 Bft)
11.10.2013 17:36 7,8 C 6,7 C 96 % 1015,6 hPa 0,0 l/m 0 min 2 min 0,0 UV-I 12 W/m 0,0 km/h (0 Bft)
11.10.2013 17:38 7,8 C 6,7 C 96 % 1015,7 hPa 0,0 l/m 0 min 2 min 0,0 UV-I 12 W/m 0,0 km/h (0 Bft)
11.10.2013 17:40 7,9 C 6,7 C 96 % 1015,7 hPa 0,0 l/m 0 min 2 min 0,0 UV-I 11 W/m 0,0 km/h (0 Bft)
11.10.2013 17:42 7,8 C 6,7 C 96 % 1015,7 hPa 0,0 l/m 0 min 2 min 0,0 UV-I 11 W/m 0,0 km/h (0 Bft)
11.10.2013 17:44 7,9 C 6,7 C 96 % 1015,8 hPa 0,0 l/m 0 min 2 min 0,0 UV-I 11 W/m 0,0 km/h (0 Bft)
11.10.2013 17:46 7,8 C 6,7 C 96 % 1015,8 hPa 0,0 l/m 0 min 2 min 0,0 UV-I 11 W/m 0,0 km/h (0 Bft)
11.10.2013 17:48 7,8 C 6,7 C 96 % 1015,8 hPa 0,2 l/m 0 min 2 min 0,0 UV-I 9 W/m 0,0 km/h (0 Bft)
11.10.2013 17:50 7,8 C 6,7 C 97 % 1015,8 hPa 0,0 l/m 0 min 2 min 0,0 UV-I 7 W/m 0,0 km/h (0 Bft)
11.10.2013 17:52 7,8 C 6,7 C 96 % 1015,7 hPa 0,0 l/m 0 min 2 min 0,0 UV-I 7 W/m 0,0 km/h (0 Bft)
11.10.2013 17:54 7,7 C 6,7 C 96 % 1015,7 hPa 0,2 l/m 0 min 2 min 0,0 UV-I 9 W/m 0,0 km/h (0 Bft)
11.10.2013 17:56 7,7 C 6,7 C 97 % 1015,7 hPa 0,0 l/m 0 min 2 min 0,0 UV-I 9 W/m 0,0 km/h (0 Bft)
11.10.2013 17:58 7,6 C 6,7 C 97 % 1015,7 hPa 0,0 l/m 0 min 2 min 0,0 UV-I 9 W/m 0,0 km/h (0 Bft)
11.10.2013 18:00 7,6 C 6,7 C 97 % 1015,7 hPa 0,0 l/m 0 min 2 min 0,0 UV-I 9 W/m 0,0 km/h (0 Bft)
11.10.2013 18:02 7,6 C 6,7 C 97 % 1015,6 hPa 0,2 l/m 0 min 2 min 0,0 UV-I 11 W/m 0,0 km/h (0 Bft)
11.10.2013 18:06 7,6 C 6,7 C 97 % 1015,6 hPa 0,2 l/m 0 min 2 min 0,0 UV-I 11 W/m 0,0 km/h (0 Bft)
11.10.2013 18:08 7,6 C 6,7 C 97 % 1015,6 hPa 0,0 l/m 0 min 2 min 0,0 UV-I 11 W/m 0,0 km/h (0 Bft)
11.10.2013 18:10 7,6 C 6,7 C 97 % 1015,6 hPa 0,0 l/m 0 min 2 min 0,0 UV-I 11 W/m 0,0 km/h (0 Bft)
11.10.2013 18:12 7,6 C 6,7 C 97 % 1015,5 hPa 0,0 l/m 0 min 2 min 0,0 UV-I 12 W/m 0,0 km/h (0 Bft)
11.10.2013 18:14 7,6 C 6,7 C 97 % 1015,4 hPa 0,0 l/m 0 min 2 min 0,0 UV-I 12 W/m 0,0 km/h (0 Bft)
11.10.2013 18:16 7,6 C 6,7 C 97 % 1015,3 hPa 0,0 l/m 0 min 2 min 0,0 UV-I 12 W/m 0,0 km/h (0 Bft)
11.10.2013 18:18 7,6 C 6,7 C 97 % 1015,3 hPa 0,2 l/m 0 min 2 min 0,0 UV-I 11 W/m 0,0 km/h (0 Bft)
11.10.2013 18:20 7,6 C 6,7 C 97 % 1015,3 hPa 0,0 l/m 0 min 2 min 0,0 UV-I 9 W/m 0,0 km/h (0 Bft)
11.10.2013 18:22 7,5 C 6,7 C 97 % 1015,3 hPa 0,0 l/m 0 min 2 min 0,0 UV-I 9 W/m 0,0 km/h (0 Bft)
11.10.2013 18:24 7,5 C 6,7 C 97 % 1015,4 hPa 0,0 l/m 0 min 2 min 0,0 UV-I 7 W/m 0,0 km/h (0 Bft)
11.10.2013 18:26 7,4 C 6,7 C 97 % 1015,3 hPa 0,0 l/m 0 min 2 min 0,0 UV-I 5 W/m 0,0 km/h (0 Bft)
11.10.2013 18:28 7,4 C 6,7 C 97 % 1015,3 hPa 0,2 l/m 0 min 2 min 0,0 UV-I 5 W/m 0,0 km/h (0 Bft)
11.10.2013 18:30 7,4 C 6,7 C 97 % 1015,3 hPa 0,0 l/m 0 min 2 min 0,0 UV-I 5 W/m 0,0 km/h (0 Bft)
11.10.2013 18:32 7,4 C 6,7 C 97 % 1015,3 hPa 0,0 l/m 0 min 2 min 0,0 UV-I 5 W/m 0,0 km/h (0 Bft)
11.10.2013 18:34 7,4 C 6,7 C 97 % 1015,3 hPa 0,0 l/m 0 min 2 min 0,0 UV-I 5 W/m 0,0 km/h (0 Bft)
11.10.2013 18:36 7,4 C 6,7 C 97 % 1015,3 hPa 0,0 l/m 0 min 2 min 0,0 UV-I 5 W/m 0,0 km/h (0 Bft)
11.10.2013 18:38 7,4 C 6,7 C 97 % 1015,3 hPa 0,0 l/m 0 min 2 min 0,0 UV-I 5 W/m 0,0 km/h (0 Bft)
11.10.2013 18:40 7,4 C 6,7 C 97 % 1015,3 hPa 0,0 l/m 0 min 2 min 0,0 UV-I 5 W/m 0,0 km/h (0 Bft)
11.10.2013 18:42 7,3 C 6,7 C 97 % 1015,3 hPa 0,0 l/m 0 min 2 min 0,0 UV-I 5 W/m 0,0 km/h (0 Bft)
11.10.2013 18:44 7,4 C 6,7 C 97 % 1015,3 hPa 0,2 l/m 0 min 2 min 0,0 UV-I 5 W/m 0,0 km/h (0 Bft)
11.10.2013 18:46 7,4 C 6,7 C 97 % 1015,4 hPa 0,0 l/m 0 min 2 min 0,0 UV-I 5 W/m 0,0 km/h (0 Bft)
11.10.2013 18:48 7,3 C 6,7 C 97 % 1015,3 hPa 0,0 l/m 0 min 2 min 0,0 UV-I 0 W/m 0,0 km/h (0 Bft)
11.10.2013 18:50 7,4 C 6,7 C 97 % 1015,4 hPa 0,0 l/m 0 min 2 min 0,0 UV-I 0 W/m 0,0 km/h (0 Bft)
11.10.2013 18:52 7,4 C 6,7 C 97 % 1015,3 hPa 0,0 l/m 0 min 2 min 0,0 UV-I 0 W/m 0,0 km/h (0 Bft)
11.10.2013 18:54 7,3 C 6,1 C 97 % 1015,4 hPa 0,0 l/m 0 min 2 min 0,0 UV-I 0 W/m 0,0 km/h (0 Bft)
11.10.2013 18:56 7,3 C 6,1 C 97 % 1015,4 hPa 0,0 l/m 0 min 2 min 0,0 UV-I 0 W/m 0,0 km/h (0 Bft)
11.10.2013 18:58 7,3 C 6,1 C 97 % 1015,4 hPa 0,0 l/m 0 min 0 min 0,0 UV-I 0 W/m 0,0 km/h (0 Bft)
11.10.2013 19:00 7,3 C 6,7 C 97 % 1015,6 hPa 0,0 l/m 0 min 2 min 0,0 UV-I 0 W/m 0,0 km/h (0 Bft)
11.10.2013 19:02 7,3 C 6,7 C 97 % 1015,6 hPa 0,0 l/m 0 min 2 min 0,0 UV-I 0 W/m 0,0 km/h (0 Bft)
11.10.2013 19:06 7,3 C 6,1 C 97 % 1015,5 hPa 0,0 l/m 0 min 2 min 0,0 UV-I 0 W/m 0,0 km/h (0 Bft)
11.10.2013 19:08 7,3 C 6,1 C 97 % 1015,4 hPa 0,0 l/m 0 min 2 min 0,0 UV-I 0 W/m 0,0 km/h (0 Bft)
11.10.2013 19:10 7,3 C 6,1 C 97 % 1015,4 hPa 0,0 l/m 0 min 2 min 0,0 UV-I 0 W/m 0,0 km/h (0 Bft)
11.10.2013 19:12 7,3 C 6,1 C 97 % 1015,4 hPa 0,0 l/m 0 min 0 min 0,0 UV-I 0 W/m 0,0 km/h (0 Bft)
11.10.2013 19:14 7,3 C 6,1 C 97 % 1015,4 hPa 0,0 l/m 0 min 0 min 0,0 UV-I 0 W/m 0,0 km/h (0 Bft)
11.10.2013 19:16 7,2 C 6,1 C 97 % 1015,4 hPa 0,0 l/m 0 min 0 min 0,0 UV-I 0 W/m 0,0 km/h (0 Bft)
11.10.2013 19:18 7,2 C 6,1 C 97 % 1015,4 hPa 0,0 l/m 0 min 0 min 0,0 UV-I 0 W/m 0,0 km/h (0 Bft)
11.10.2013 19:20 7,2 C 6,1 C 97 % 1015,4 hPa 0,0 l/m 0 min 0 min 0,0 UV-I 0 W/m 0,0 km/h (0 Bft)
11.10.2013 19:22 7,2 C 6,1 C 97 % 1015,4 hPa 0,0 l/m 0 min 0 min 0,0 UV-I 0 W/m 0,0 km/h (0 Bft)
11.10.2013 19:24 7,2 C 6,1 C 97 % 1015,4 hPa 0,0 l/m 0 min 0 min 0,0 UV-I 0 W/m 0,0 km/h (0 Bft)
11.10.2013 19:26 7,2 C 6,1 C 97 % 1015,4 hPa 0,0 l/m 0 min 2 min 0,0 UV-I 0 W/m 0,0 km/h (0 Bft)
11.10.2013 19:28 7,1 C 6,1 C 97 % 1015,4 hPa 0,0 l/m 0 min 2 min 0,0 UV-I 0 W/m 0,0 km/h (0 Bft)
11.10.2013 19:30 7,1 C 6,1 C 97 % 1015,4 hPa 0,0 l/m 0 min 2 min 0,0 UV-I 0 W/m 0,0 km/h (0 Bft)
11.10.2013 19:32 7,1 C 6,1 C 97 % 1015,4 hPa 0,0 l/m 0 min 2 min 0,0 UV-I 0 W/m 0,0 km/h (0 Bft)
11.10.2013 19:34 7,1 C 6,1 C 97 % 1015,4 hPa 0,0 l/m 0 min 0 min 0,0 UV-I 0 W/m 0,0 km/h (0 Bft)
11.10.2013 19:36 7,1 C 6,1 C 97 % 1015,5 hPa 0,0 l/m 0 min 2 min 0,0 UV-I 0 W/m 0,0 km/h (0 Bft)
11.10.2013 19:38 7,1 C 6,1 C 97 % 1015,5 hPa 0,0 l/m 0 min 0 min 0,0 UV-I 0 W/m 0,0 km/h (0 Bft)
11.10.2013 19:40 7,1 C 6,1 C 97 % 1015,5 hPa 0,0 l/m 0 min 2 min 0,0 UV-I 0 W/m 0,0 km/h (0 Bft)
11.10.2013 19:42 7,1 C 6,1 C 98 % 1015,5 hPa 0,0 l/m 0 min 2 min 0,0 UV-I 0 W/m 0,0 km/h (0 Bft)
11.10.2013 19:44 7,0 C 6,1 C 98 % 1015,5 hPa 0,0 l/m 0 min 2 min 0,0 UV-I 0 W/m 0,0 km/h (0 Bft)
11.10.2013 19:46 7,0 C 6,1 C 98 % 1015,6 hPa 0,0 l/m 0 min 2 min 0,0 UV-I 0 W/m 0,0 km/h (0 Bft)
11.10.2013 19:48 7,0 C 6,1 C 98 % 1015,7 hPa 0,0 l/m 0 min 2 min 0,0 UV-I 0 W/m 0,0 km/h (0 Bft)
11.10.2013 19:50 7,0 C 6,1 C 98 % 1015,7 hPa 0,0 l/m 0 min 2 min 0,0 UV-I 0 W/m 0,0 km/h (0 Bft)
11.10.2013 19:52 7,0 C 6,1 C 98 % 1015,6 hPa 0,2 l/m 0 min 2 min 0,0 UV-I 0 W/m 0,0 km/h (0 Bft)
11.10.2013 19:54 7,0 C 6,1 C 97 % 1015,6 hPa 0,0 l/m 0 min 2 min 0,0 UV-I 0 W/m 0,0 km/h (0 Bft)
11.10.2013 19:56 7,0 C 6,1 C 97 % 1015,6 hPa 0,0 l/m 0 min 2 min 0,0 UV-I 0 W/m 0,0 km/h (0 Bft)
11.10.2013 19:58 7,0 C 6,1 C 98 % 1015,5 hPa 0,0 l/m 0 min 2 min 0,0 UV-I 0 W/m 0,0 km/h (0 Bft)
11.10.2013 20:00 7,1 C 6,1 C 98 % 1015,6 hPa 0,0 l/m 0 min 2 min 0,0 UV-I 0 W/m 0,0 km/h (0 Bft)
11.10.2013 20:02 7,1 C 6,1 C 98 % 1015,7 hPa 0,0 l/m 0 min 2 min 0,0 UV-I 0 W/m 0,0 km/h (0 Bft)
11.10.2013 20:06 7,0 C 6,1 C 98 % 1015,7 hPa 0,2 l/m 0 min 2 min 0,0 UV-I 0 W/m 0,0 km/h (0 Bft)
11.10.2013 20:08 7,1 C 6,1 C 98 % 1015,7 hPa 0,0 l/m 0 min 2 min 0,0 UV-I 0 W/m 0,0 km/h (0 Bft)
11.10.2013 20:10 7,1 C 6,1 C 98 % 1015,7 hPa 0,0 l/m 0 min 2 min 0,0 UV-I 0 W/m 0,0 km/h (0 Bft)
11.10.2013 20:12 7,1 C 6,1 C 98 % 1015,6 hPa 0,2 l/m 0 min 2 min 0,0 UV-I 0 W/m 0,0 km/h (0 Bft)
11.10.2013 20:14 7,1 C 6,1 C 98 % 1015,6 hPa 0,0 l/m 0 min 2 min 0,0 UV-I 0 W/m 0,0 km/h (0 Bft)
11.10.2013 20:16 7,1 C 6,1 C 98 % 1015,6 hPa 0,0 l/m 0 min 2 min 0,0 UV-I 0 W/m 0,0 km/h (0 Bft)
11.10.2013 20:18 7,1 C 6,1 C 98 % 1015,7 hPa 0,0 l/m 0 min 2 min 0,0 UV-I 0 W/m 0,0 km/h (0 Bft)
11.10.2013 20:20 7,1 C 6,1 C 98 % 1015,7 hPa 0,0 l/m 0 min 2 min 0,0 UV-I 0 W/m 0,0 km/h (0 Bft)
11.10.2013 20:22 7,1 C 6,1 C 98 % 1015,6 hPa 0,2 l/m 0 min 2 min 0,0 UV-I 0 W/m 0,0 km/h (0 Bft)
11.10.2013 20:24 7,1 C 6,1 C 98 % 1015,6 hPa 0,0 l/m 0 min 2 min 0,0 UV-I 0 W/m 0,0 km/h (0 Bft)
11.10.2013 20:26 7,1 C 6,1 C 98 % 1015,7 hPa 0,0 l/m 0 min 2 min 0,0 UV-I 0 W/m 0,0 km/h (0 Bft)
11.10.2013 20:28 7,1 C 6,1 C 98 % 1015,6 hPa 0,0 l/m 0 min 2 min 0,0 UV-I 0 W/m 0,0 km/h (0 Bft)
11.10.2013 20:30 7,1 C 6,1 C 98 % 1015,6 hPa 0,0 l/m 0 min 2 min 0,0 UV-I 0 W/m 0,0 km/h (0 Bft)
11.10.2013 20:32 7,1 C 6,1 C 98 % 1015,5 hPa 0,0 l/m 0 min 2 min 0,0 UV-I 0 W/m 0,0 km/h (0 Bft)
11.10.2013 20:34 7,1 C 6,1 C 98 % 1015,4 hPa 0,0 l/m 0 min 2 min 0,0 UV-I 0 W/m 0,0 km/h (0 Bft)
11.10.2013 20:36 7,0 C 6,1 C 98 % 1015,4 hPa 0,0 l/m 0 min 2 min 0,0 UV-I 0 W/m 0,0 km/h (0 Bft)
11.10.2013 20:38 7,1 C 6,1 C 98 % 1015,5 hPa 0,0 l/m 0 min 2 min 0,0 UV-I 0 W/m 0,0 km/h (0 Bft)
11.10.2013 20:40 7,1 C 6,1 C 98 % 1015,6 hPa 0,0 l/m 0 min 2 min 0,0 UV-I 0 W/m 0,0 km/h (0 Bft)
11.10.2013 20:42 7,0 C 6,1 C 98 % 1015,6 hPa 0,0 l/m 0 min 0 min 0,0 UV-I 0 W/m 0,0 km/h (0 Bft)
11.10.2013 20:44 6,9 C 6,1 C 98 % 1015,4 hPa 0,0 l/m 0 min 2 min 0,0 UV-I 0 W/m 0,0 km/h (0 Bft)
11.10.2013 20:46 6,9 C 6,1 C 98 % 1015,3 hPa 0,0 l/m 0 min 0 min 0,0 UV-I 0 W/m 0,0 km/h (0 Bft)
11.10.2013 20:48 6,9 C 6,1 C 98 % 1015,4 hPa 0,0 l/m 0 min 0 min 0,0 UV-I 0 W/m 0,0 km/h (0 Bft)
11.10.2013 20:50 6,9 C 6,1 C 98 % 1015,4 hPa 0,0 l/m 0 min 0 min 0,0 UV-I 0 W/m 0,0 km/h (0 Bft)
11.10.2013 20:52 6,9 C 6,1 C 98 % 1015,4 hPa 0,0 l/m 0 min 0 min 0,0 UV-I 0 W/m 0,0 km/h (0 Bft)
11.10.2013 20:54 6,9 C 6,1 C 98 % 1015,3 hPa 0,0 l/m 0 min 0 min 0,0 UV-I 0 W/m 0,0 km/h (0 Bft)
11.10.2013 20:56 6,9 C 6,1 C 98 % 1015,2 hPa 0,0 l/m 0 min 2 min 0,0 UV-I 0 W/m 0,0 km/h (0 Bft)
11.10.2013 20:58 6,9 C 6,1 C 98 % 1015,2 hPa 0,0 l/m 0 min 0 min 0,0 UV-I 0 W/m 0,0 km/h (0 Bft)
11.10.2013 21:00 6,9 C 6,1 C 98 % 1015,2 hPa 0,0 l/m 0 min 0 min 0,0 UV-I 0 W/m 0,0 km/h (0 Bft)
11.10.2013 21:02 6,9 C 6,1 C 98 % 1015,3 hPa 0,0 l/m 0 min 0 min 0,0 UV-I 0 W/m 0,0 km/h (0 Bft)
11.10.2013 21:06 6,9 C 6,1 C 98 % 1015,6 hPa 0,2 l/m 0 min 0 min 0,0 UV-I 0 W/m 0,0 km/h (0 Bft)
11.10.2013 21:08 6,9 C 6,1 C 98 % 1015,6 hPa 0,0 l/m 0 min 2 min 0,0 UV-I 0 W/m 0,0 km/h (0 Bft)
11.10.2013 21:10 6,9 C 6,1 C 98 % 1015,8 hPa 0,0 l/m 0 min 2 min 0,0 UV-I 0 W/m 0,0 km/h (0 Bft)
11.10.2013 21:12 6,9 C 6,1 C 98 % 1015,8 hPa 0,0 l/m 0 min 0 min 0,0 UV-I 0 W/m 0,0 km/h (0 Bft)
11.10.2013 21:14 6,9 C 6,1 C 98 % 1015,8 hPa 0,0 l/m 0 min 2 min 0,0 UV-I 0 W/m 0,0 km/h (0 Bft)
11.10.2013 21:16 6,9 C 6,1 C 98 % 1015,6 hPa 0,0 l/m 0 min 2 min 0,0 UV-I 0 W/m 0,0 km/h (0 Bft)
11.10.2013 21:18 6,9 C 6,1 C 98 % 1015,7 hPa 0,0 l/m 0 min 2 min 0,0 UV-I 0 W/m 0,0 km/h (0 Bft)
11.10.2013 21:20 6,9 C 6,1 C 98 % 1015,7 hPa 0,0 l/m 0 min 0 min 0,0 UV-I 0 W/m 0,0 km/h (0 Bft)
11.10.2013 21:22 7,0 C 6,1 C 98 % 1015,6 hPa 0,0 l/m 0 min 0 min 0,0 UV-I 0 W/m 0,0 km/h (0 Bft)
11.10.2013 21:24 6,9 C 6,1 C 98 % 1015,7 hPa 0,0 l/m 0 min 0 min 0,0 UV-I 0 W/m 0,0 km/h (0 Bft)
11.10.2013 21:26 6,9 C 6,1 C 98 % 1015,7 hPa 0,0 l/m 0 min 0 min 0,0 UV-I 0 W/m 0,0 km/h (0 Bft)
11.10.2013 21:28 6,9 C 6,1 C 98 % 1015,9 hPa 0,0 l/m 0 min 0 min 0,0 UV-I 0 W/m 0,0 km/h (0 Bft)
11.10.2013 21:30 6,9 C 6,1 C 98 % 1015,9 hPa 0,0 l/m 0 min 0 min 0,0 UV-I 0 W/m 0,0 km/h (0 Bft)
11.10.2013 21:32 7,0 C 6,1 C 98 % 1015,8 hPa 0,0 l/m 0 min 0 min 0,0 UV-I 0 W/m 0,0 km/h (0 Bft)
11.10.2013 21:34 7,0 C 6,1 C 98 % 1015,5 hPa 0,0 l/m 0 min 0 min 0,0 UV-I 0 W/m 0,0 km/h (0 Bft)
11.10.2013 21:36 7,1 C 6,1 C 98 % 1015,4 hPa 0,0 l/m 0 min 0 min 0,0 UV-I 0 W/m 0,0 km/h (0 Bft)
11.10.2013 21:38 7,1 C 6,1 C 98 % 1015,5 hPa 0,0 l/m 0 min 0 min 0,0 UV-I 0 W/m 0,0 km/h (0 Bft)
11.10.2013 21:40 7,1 C 6,1 C 98 % 1015,5 hPa 0,0 l/m 0 min 0 min 0,0 UV-I 0 W/m 0,0 km/h (0 Bft)
11.10.2013 21:42 7,1 C 6,1 C 98 % 1015,7 hPa 0,0 l/m 0 min 2 min 0,0 UV-I 0 W/m 0,0 km/h (0 Bft)
11.10.2013 21:44 7,1 C 6,1 C 98 % 1015,6 hPa 0,0 l/m 0 min 2 min 0,0 UV-I 0 W/m 0,0 km/h (0 Bft)
11.10.2013 21:46 7,1 C 6,1 C 98 % 1015,6 hPa 0,0 l/m 0 min 2 min 0,0 UV-I 0 W/m 0,0 km/h (0 Bft)
11.10.2013 21:48 7,1 C 6,1 C 98 % 1015,5 hPa 0,0 l/m 0 min 2 min 0,0 UV-I 0 W/m 0,0 km/h (0 Bft)
11.10.2013 21:50 7,1 C 6,1 C 98 % 1015,6 hPa 0,0 l/m 0 min 2 min 0,0 UV-I 0 W/m 0,0 km/h (0 Bft)
11.10.2013 21:52 7,1 C 6,1 C 98 % 1015,7 hPa 0,0 l/m 0 min 2 min 0,0 UV-I 0 W/m 0,0 km/h (0 Bft)
11.10.2013 21:54 7,1 C 6,1 C 98 % 1015,7 hPa 0,0 l/m 0 min 2 min 0,0 UV-I 0 W/m 0,0 km/h (0 Bft)
11.10.2013 21:56 7,1 C 6,1 C 98 % 1015,8 hPa 0,0 l/m 0 min 2 min 0,0 UV-I 0 W/m 0,0 km/h (0 Bft)
11.10.2013 21:58 7,1 C 6,1 C 98 % 1015,7 hPa 0,0 l/m 0 min 2 min 0,0 UV-I 0 W/m 0,0 km/h (0 Bft)
11.10.2013 22:00 7,1 C 6,1 C 98 % 1015,5 hPa 0,0 l/m 0 min 2 min 0,0 UV-I 0 W/m 0,0 km/h (0 Bft)
11.10.2013 22:02 7,1 C 6,1 C 98 % 1015,4 hPa 0,0 l/m 0 min 2 min 0,0 UV-I 0 W/m 0,0 km/h (0 Bft)
11.10.2013 22:06 7,0 C 6,1 C 98 % 1015,6 hPa 0,2 l/m 0 min 2 min 0,0 UV-I 0 W/m 0,0 km/h (0 Bft)
11.10.2013 22:08 7,0 C 6,1 C 98 % 1015,8 hPa 0,0 l/m 0 min 2 min 0,0 UV-I 0 W/m 0,0 km/h (0 Bft)
11.10.2013 22:10 7,0 C 6,1 C 98 % 1015,9 hPa 0,0 l/m 0 min 2 min 0,0 UV-I 0 W/m 0,0 km/h (0 Bft)
11.10.2013 22:12 7,0 C 6,1 C 98 % 1015,7 hPa 0,0 l/m 0 min 2 min 0,0 UV-I 0 W/m 0,0 km/h (0 Bft)
11.10.2013 22:14 7,0 C 6,1 C 98 % 1015,7 hPa 0,0 l/m 0 min 2 min 0,0 UV-I 0 W/m 2,6 km/h (1 Bft)
11.10.2013 22:16 7,0 C 6,1 C 98 % 1015,8 hPa 0,0 l/m 0 min 2 min 0,0 UV-I 0 W/m 0,0 km/h (0 Bft)
11.10.2013 22:18 6,9 C 6,1 C 98 % 1015,8 hPa 0,0 l/m 0 min 2 min 0,0 UV-I 0 W/m 0,0 km/h (0 Bft)
11.10.2013 22:20 6,9 C 6,1 C 98 % 1015,8 hPa 0,0 l/m 0 min 2 min 0,0 UV-I 0 W/m 0,0 km/h (0 Bft)
11.10.2013 22:22 6,9 C 6,1 C 98 % 1015,9 hPa 0,0 l/m 0 min 2 min 0,0 UV-I 0 W/m 0,0 km/h (0 Bft)
11.10.2013 22:24 6,9 C 6,1 C 98 % 1015,9 hPa 0,0 l/m 0 min 2 min 0,0 UV-I 0 W/m 0,0 km/h (0 Bft)
11.10.2013 22:26 6,9 C 6,1 C 98 % 1016,1 hPa 0,0 l/m 0 min 0 min 0,0 UV-I 0 W/m 2,6 km/h (1 Bft)
11.10.2013 22:28 6,8 C 6,1 C 98 % 1015,9 hPa 0,0 l/m 0 min 0 min 0,0 UV-I 0 W/m 0,0 km/h (0 Bft)
11.10.2013 22:30 6,8 C 6,1 C 98 % 1016,0 hPa 0,0 l/m 0 min 0 min 0,0 UV-I 0 W/m 0,0 km/h (0 Bft)
11.10.2013 22:32 6,7 C 5,6 C 98 % 1016,1 hPa 0,0 l/m 0 min 0 min 0,0 UV-I 0 W/m 0,0 km/h (0 Bft)
11.10.2013 22:34 6,7 C 5,6 C 98 % 1016,1 hPa 0,0 l/m 0 min 0 min 0,0 UV-I 0 W/m 0,0 km/h (0 Bft)
11.10.2013 22:36 6,7 C 5,6 C 98 % 1016,2 hPa 0,0 l/m 0 min 0 min 0,0 UV-I 0 W/m 0,0 km/h (0 Bft)
11.10.2013 22:38 6,7 C 5,6 C 98 % 1016,1 hPa 0,0 l/m 0 min 0 min 0,0 UV-I 0 W/m 0,0 km/h (0 Bft)
11.10.2013 22:40 6,6 C 5,6 C 98 % 1016,0 hPa 0,0 l/m 0 min 0 min 0,0 UV-I 0 W/m 0,0 km/h (0 Bft)
11.10.2013 22:42 6,6 C 5,6 C 98 % 1016,2 hPa 0,0 l/m 0 min 0 min 0,0 UV-I 0 W/m 0,0 km/h (0 Bft)
11.10.2013 22:44 6,7 C 5,6 C 98 % 1016,3 hPa 0,0 l/m 0 min 0 min 0,0 UV-I 0 W/m 0,0 km/h (0 Bft)
11.10.2013 22:46 6,7 C 5,6 C 98 % 1016,4 hPa 0,2 l/m 0 min 0 min 0,0 UV-I 0 W/m 0,0 km/h (0 Bft)
11.10.2013 22:48 6,7 C 5,6 C 98 % 1016,4 hPa 0,0 l/m 0 min 0 min 0,0 UV-I 0 W/m 0,0 km/h (0 Bft)
11.10.2013 22:50 6,7 C 5,6 C 98 % 1016,3 hPa 0,0 l/m 0 min 0 min 0,0 UV-I 0 W/m 0,0 km/h (0 Bft)
11.10.2013 22:52 6,7 C 5,6 C 98 % 1016,3 hPa 0,0 l/m 0 min 0 min 0,0 UV-I 0 W/m 0,0 km/h (0 Bft)
11.10.2013 22:54 6,7 C 5,6 C 98 % 1016,3 hPa 0,0 l/m 0 min 0 min 0,0 UV-I 0 W/m 0,0 km/h (0 Bft)
11.10.2013 22:56 6,7 C 5,6 C 98 % 1016,3 hPa 0,0 l/m 0 min 0 min 0,0 UV-I 0 W/m 0,0 km/h (0 Bft)
11.10.2013 22:58 6,7 C 5,6 C 98 % 1016,3 hPa 0,0 l/m 0 min 0 min 0,0 UV-I 0 W/m 0,0 km/h (0 Bft)
11.10.2013 23:00 6,7 C 5,6 C 98 % 1016,5 hPa 0,0 l/m 0 min 0 min 0,0 UV-I 0 W/m 0,0 km/h (0 Bft)
11.10.2013 23:02 6,7 C 5,6 C 98 % 1016,4 hPa 0,0 l/m 0 min 0 min 0,0 UV-I 0 W/m 0,0 km/h (0 Bft)
11.10.2013 23:06 6,6 C 5,6 C 98 % 1016,4 hPa 0,0 l/m 0 min 0 min 0,0 UV-I 0 W/m 0,0 km/h (0 Bft)
11.10.2013 23:08 6,6 C 5,6 C 98 % 1016,5 hPa 0,0 l/m 0 min 0 min 0,0 UV-I 0 W/m 0,0 km/h (0 Bft)
11.10.2013 23:10 6,6 C 5,6 C 98 % 1016,4 hPa 0,0 l/m 0 min 0 min 0,0 UV-I 0 W/m 0,0 km/h (0 Bft)
11.10.2013 23:12 6,6 C 5,6 C 98 % 1016,5 hPa 0,0 l/m 0 min 0 min 0,0 UV-I 0 W/m 0,0 km/h (0 Bft)
11.10.2013 23:14 6,6 C 5,6 C 98 % 1016,5 hPa 0,0 l/m 0 min 0 min 0,0 UV-I 0 W/m 0,0 km/h (0 Bft)
11.10.2013 23:16 6,6 C 5,6 C 98 % 1016,6 hPa 0,0 l/m 0 min 0 min 0,0 UV-I 0 W/m 0,0 km/h (0 Bft)
11.10.2013 23:18 6,6 C 5,6 C 98 % 1016,6 hPa 0,0 l/m 0 min 0 min 0,0 UV-I 0 W/m 0,0 km/h (0 Bft)
11.10.2013 23:20 6,6 C 5,6 C 98 % 1016,5 hPa 0,0 l/m 0 min 0 min 0,0 UV-I 0 W/m 0,0 km/h (0 Bft)
11.10.2013 23:22 6,6 C 5,6 C 98 % 1016,6 hPa 0,0 l/m 0 min 0 min 0,0 UV-I 0 W/m 0,0 km/h (0 Bft)
11.10.2013 23:24 6,6 C 5,6 C 98 % 1016,6 hPa 0,0 l/m 0 min 0 min 0,0 UV-I 0 W/m 0,0 km/h (0 Bft)
11.10.2013 23:26 6,6 C 5,6 C 98 % 1016,7 hPa 0,0 l/m 0 min 0 min 0,0 UV-I 0 W/m 0,0 km/h (0 Bft)
11.10.2013 23:28 6,6 C 5,6 C 98 % 1016,8 hPa 0,0 l/m 0 min 0 min 0,0 UV-I 0 W/m 0,0 km/h (0 Bft)
11.10.2013 23:30 6,7 C 5,6 C 98 % 1016,7 hPa 0,0 l/m 0 min 0 min 0,0 UV-I 0 W/m 0,0 km/h (0 Bft)
11.10.2013 23:32 6,7 C 5,6 C 98 % 1016,7 hPa 0,0 l/m 0 min 0 min 0,0 UV-I 0 W/m 0,0 km/h (0 Bft)
11.10.2013 23:34 6,6 C 5,6 C 98 % 1016,7 hPa 0,0 l/m 0 min 0 min 0,0 UV-I 0 W/m 0,0 km/h (0 Bft)
11.10.2013 23:36 6,7 C 5,6 C 98 % 1016,7 hPa 0,0 l/m 0 min 0 min 0,0 UV-I 0 W/m 0,0 km/h (0 Bft)
11.10.2013 23:38 6,6 C 5,6 C 98 % 1016,7 hPa 0,0 l/m 0 min 0 min 0,0 UV-I 0 W/m 0,0 km/h (0 Bft)
11.10.2013 23:40 6,6 C 5,6 C 98 % 1016,8 hPa 0,0 l/m 0 min 0 min 0,0 UV-I 0 W/m 0,0 km/h (0 Bft)
11.10.2013 23:42 6,6 C 5,6 C 98 % 1016,7 hPa 0,0 l/m 0 min 0 min 0,0 UV-I 0 W/m 0,0 km/h (0 Bft)
11.10.2013 23:44 6,6 C 5,6 C 98 % 1016,7 hPa 0,0 l/m 0 min 0 min 0,0 UV-I 0 W/m 2,6 km/h (1 Bft)
11.10.2013 23:46 6,6 C 5,6 C 98 % 1016,8 hPa 0,0 l/m 0 min 0 min 0,0 UV-I 0 W/m 0,0 km/h (0 Bft)
11.10.2013 23:48 6,6 C 5,6 C 98 % 1016,7 hPa 0,0 l/m 0 min 0 min 0,0 UV-I 0 W/m 0,0 km/h (0 Bft)
11.10.2013 23:50 6,6 C 5,6 C 98 % 1016,7 hPa 0,0 l/m 0 min 0 min 0,0 UV-I 0 W/m 0,0 km/h (0 Bft)
11.10.2013 23:52 6,7 C 5,6 C 98 % 1016,7 hPa 0,0 l/m 0 min 0 min 0,0 UV-I 0 W/m 0,0 km/h (0 Bft)
11.10.2013 23:54 6,7 C 5,6 C 98 % 1016,7 hPa 0,0 l/m 0 min 0 min 0,0 UV-I 0 W/m 0,0 km/h (0 Bft)
11.10.2013 23:56 6,7 C 5,6 C 98 % 1016,7 hPa 0,0 l/m 0 min 0 min 0,0 UV-I 0 W/m 0,0 km/h (0 Bft)
11.10.2013 23:58 6,7 C 5,6 C 98 % 1016,7 hPa 0,0 l/m 0 min 0 min 0,0 UV-I 0 W/m 0,0 km/h (0 Bft)
_ Min-Zeit 03:40 03:10 00:00 00:00 - - - - - 00:00
Minimum _ 5,1 C 3,9 C 94 % 1010,2 hPa - - - - - 0,0 km/h (0 Bft)
_ Max-Zeit 14:34 14:18 04:36 23:28 12:42 00:00 09:22 00:00 14:18 10:48
Maximum _ 8,9 C 8,3 C 98 % 1016,8 hPa 0,2 l/m 0 min 2 min 0,0 UV-I 151 W/m 15,4 km/h
W-NW (3 Bft)
Durchschnitt _ 7,1 C 6,1 C 96 % 1014,3 hPa #5,8 l/m #0 min. #9:02 h 0,0 UV-I 61 W/m 0,3 km/h (0 Bft)
© 2013 W. Hausmann